GW2849 Weather Reports


Display with metric or nautical units.
time (UTC)temp
F
wind
direction
speed
MPH
gust
MPH
rain 1hr
in
rain 24hr
in
rain mn
in
humidity
%
barometer
mb
20260831231201 88 321 0.0 5.0 0.00 0.00 0.00 62 1016.9
20260831231104 88 325 2.0 5.0 0.00 0.00 0.00 62 1016.9
20260831231003 88 228 0.0 5.0 0.00 0.00 0.00 62 1016.9
20260831230902 88 198 3.0 5.0 0.00 0.00 0.00 62 1016.9
20260831230801 88 162 1.0 5.0 0.00 0.00 0.00 61 1016.9
20260831230703 88 183 3.0 6.0 0.00 0.00 0.00 62 1016.9
20260831230503 88 212 0.0 4.0 0.00 0.00 0.00 62 1016.9
20260831230401 88 212 2.0 4.0 0.00 0.00 0.00 62 1016.9
20260831230003 89 208 0.0 4.0 0.00 0.00 0.00 62 1016.9
20260831225902 89 169 0.0 4.0 0.00 0.00 0.00 61 1016.9
20260831225801 89 279 0.0 4.0 0.00 0.00 0.00 61 1016.9
20260831225702 89 211 0.0 2.0 0.00 0.00 0.00 61 1016.9
20260831225602 89 153 0.0 2.0 0.00 0.00 0.00 61 1016.9
20260831225502 89 166 0.0 2.0 0.00 0.00 0.00 61 1016.9
20260831225403 89 172 0.0 2.0 0.00 0.00 0.00 61 1017.0
20260831225305 89 236 0.0 2.0 0.00 0.00 0.00 61 1016.9
20260831225202 89 232 0.0 2.0 0.00 0.00 0.00 60 1016.9
20260831225104 89 221 2.0 4.0 0.00 0.00 0.00 61 1016.9
20260831225002 89 192 0.0 4.0 0.00 0.00 0.00 61 1017.1
20260831224903 89 189 0.0 5.0 0.00 0.00 0.00 60 1017.0
20260831224702 89 138 1.0 5.0 0.00 0.00 0.00 61 1017.1
20260831224602 89 201 0.0 5.0 0.00 0.00 0.00 60 1017.1
20260831224502 89 201 0.0 5.0 0.00 0.00 0.00 60 1017.0
20260831224301 89 207 1.0 5.0 0.00 0.00 0.00 59 1017.1
20260831224102 89 298 0.0 5.0 0.00 0.00 0.00 59 1017.0
20260831224003 89 194 0.0 7.0 0.00 0.00 0.00 60 1017.1
20260831223902 89 195 1.0 7.0 0.00 0.00 0.00 60 1017.1
20260831223801 89 302 0.0 7.0 0.00 0.00 0.00 59 1017.1
20260831223703 90 184 3.0 7.0 0.00 0.00 0.00 59 1017.2
20260831223602 90 315 0.0 7.0 0.00 0.00 0.00 59 1017.2
20260831223504 90 191 0.0 7.0 0.00 0.00 0.00 59 1017.1
20260831223403 90 258 0.0 7.0 0.00 0.00 0.00 59 1017.2
20260831223302 90 196 2.0 7.0 0.00 0.00 0.00 58 1017.2
20260831223200 90 146 2.0 7.0 0.00 0.00 0.00 59 1017.1
20260831223000 90 216 1.0 4.0 0.00 0.00 0.00 59 1017.1
20260831222903 90 277 2.0 4.0 0.00 0.00 0.00 59 1017.1
20260831222801 90 200 2.0 4.0 0.00 0.00 0.00 59 1017.1
20260831222701 90 196 2.0 4.0 0.00 0.00 0.00 59 1017.2
20260831222601 90 169 1.0 4.0 0.00 0.00 0.00 59 1017.1
20260831222501 90 341 1.0 4.0 0.00 0.00 0.00 58 1017.2
20260831222400 90 304 2.0 4.0 0.00 0.00 0.00 59 1017.1
20260831222306 90 240 0.0 4.0 0.00 0.00 0.00 58 1017.1
20260831222201 90 292 1.0 4.0 0.00 0.00 0.00 58 1017.3
20260831222001 90 240 0.0 4.0 0.00 0.00 0.00 58 1017.3
20260831221902 90 177 0.0 4.0 0.00 0.00 0.00 58 1017.3
20260831221701 90 214 1.0 5.0 0.00 0.00 0.00 58 1017.4
20260831221502 90 252 0.0 6.0 0.00 0.00 0.00 58 1017.5
20260831221402 91 252 3.0 6.0 0.00 0.00 0.00 59 1017.5
20260831221202 91 176 0.0 6.0 0.00 0.00 0.00 57 1017.5
20260831221001 91 187 1.0 6.0 0.00 0.00 0.00 58 1017.5
20260831220901 91 154 1.0 6.0 0.00 0.00 0.00 57 1017.5
20260831220801 91 211 3.0 6.0 0.00 0.00 0.00 56 1017.5
20260831220701 91 184 3.0 6.0 0.00 0.00 0.00 56 1017.6
20260831220502 92 231 0.0 5.0 0.00 0.00 0.00 56 1017.6
20260831220400 92 189 0.0 5.0 0.00 0.00 0.00 57 1017.5
20260831220301 92 303 0.0 5.0 0.00 0.00 0.00 56 1017.6
20260831220201 92 177 0.0 5.0 0.00 0.00 0.00 56 1017.5
20260831220100 92 189 3.0 5.0 0.00 0.00 0.00 56 1017.5
20260831215801 92 307 0.0 4.0 0.00 0.00 0.00 56 1017.5
20260831215700 92 290 1.0 4.0 0.00 0.00 0.00 56 1017.5
20260831215501 92 150 1.0 3.0 0.00 0.00 0.00 56 1017.6
20260831215401 92 198 0.0 3.0 0.00 0.00 0.00 56 1017.6
20260831215104 92 163 0.0 4.0 0.00 0.00 0.00 56 1017.6
20260831215000 92 184 1.0 4.0 0.00 0.00 0.00 55 1017.7
20260831214904 92 264 1.0 4.0 0.00 0.00 0.00 56 1017.6
20260831214801 92 217 0.0 4.0 0.00 0.00 0.00 56 1017.7
20260831214604 92 217 0.0 4.0 0.00 0.00 0.00 55 1017.6
20260831214501 93 209 0.0 4.0 0.00 0.00 0.00 55 1017.7
20260831214400 93 175 0.0 1.0 0.00 0.00 0.00 55 1017.8
20260831214302 93 193 0.0 1.0 0.00 0.00 0.00 55 1017.6
20260831214201 93 204 0.0 2.0 0.00 0.00 0.00 56 1017.6
20260831214001 93 285 0.0 3.0 0.00 0.00 0.00 54 1017.7
20260831213901 93 211 0.0 3.0 0.00 0.00 0.00 55 1017.7
20260831213700 93 331 0.0 5.0 0.00 0.00 0.00 56 1017.7
20260831213600 93 331 0.0 5.0 0.00 0.00 0.00 56 1017.7
20260831213501 93 255 0.0 5.0 0.00 0.00 0.00 55 1017.7
20260831213400 93 252 0.0 5.0 0.00 0.00 0.00 56 1017.8
20260831213300 93 275 1.0 5.0 0.00 0.00 0.00 55 1017.8
20260831213201 93 284 0.0 5.0 0.00 0.00 0.00 55 1017.8
20260831213100 93 184 0.0 5.0 0.00 0.00 0.00 56 1017.8
20260831213000 93 184 1.0 5.0 0.00 0.00 0.00 56 1017.7
20260831212801 93 182 0.0 4.0 0.00 0.00 0.00 56 1017.7
20260831212700 93 300 0.0 4.0 0.00 0.00 0.00 56 1017.7
20260831212600 93 292 4.0 4.0 0.00 0.00 0.00 55 1017.7
20260831212501 93 173 2.0 3.0 0.00 0.00 0.00 55 1017.7
20260831212401 93 218 0.0 4.0 0.00 0.00 0.00 55 1017.7
20260831212201 93 182 0.0 4.0 0.00 0.00 0.00 56 1017.6
20260831212101 93 182 2.0 4.0 0.00 0.00 0.00 56 1017.7
20260831211902 93 235 0.0 4.0 0.00 0.00 0.00 56 1017.8
20260831211801 93 145 0.0 4.0 0.00 0.00 0.00 57 1017.6
20260831211703 93 206 0.0 5.0 0.00 0.00 0.00 55 1017.7
20260831211600 93 300 0.0 5.0 0.00 0.00 0.00 55 1017.7
20260831211501 92 259 1.0 5.0 0.00 0.00 0.00 56 1017.7
20260831211401 92 298 0.0 5.0 0.00 0.00 0.00 57 1017.7
20260831211301 92 290 0.0 5.0 0.00 0.00 0.00 56 1017.7
20260831211203 92 330 0.0 5.0 0.00 0.00 0.00 56 1017.8
20260831211001 92 232 0.0 5.0 0.00 0.00 0.00 56 1017.8
20260831210902 92 313 0.0 5.0 0.00 0.00 0.00 56 1017.8
20260831210801 92 294 4.0 4.0 0.00 0.00 0.00 57 1017.8
20260831210701 92 355 0.0 7.0 0.00 0.00 0.00 58 1017.9
20260831210601 92 279 0.0 9.0 0.00 0.00 0.00 57 1017.8
20260831210502 92 173 0.0 9.0 0.00 0.00 0.00 56 1017.8
20260831210402 92 219 0.0 9.0 0.00 0.00 0.00 56 1017.8
20260831210303 92 138 0.0 9.0 0.00 0.00 0.00 55 1017.9
20260831210202 92 116 1.0 9.0 0.00 0.00 0.00 55 1018.0
20260831210002 92 188 3.0 9.0 0.00 0.00 0.00 55 1018.1
20260831205901 92 194 2.0 9.0 0.00 0.00 0.00 54 1018.0
20260831205701 93 196 6.0 9.0 0.00 0.00 0.00 54 1017.9
20260831205602 93 215 0.0 5.0 0.00 0.00 0.00 54 1018.0
20260831205501 93 178 2.0 5.0 0.00 0.00 0.00 56 1018.0
20260831205401 93 200 0.0 2.0 0.00 0.00 0.00 56 1018.0
20260831205305 93 184 0.0 1.0 0.00 0.00 0.00 55 1018.0
20260831205204 93 347 0.0 1.0 0.00 0.00 0.00 56 1018.0
20260831205100 93 333 0.0 1.0 0.00 0.00 0.00 56 1018.0
20260831205003 93 62 0.0 1.0 0.00 0.00 0.00 56 1018.0
20260831204904 93 337 0.0 1.0 0.00 0.00 0.00 58 1017.9
20260831204800 92 334 0.0 1.0 0.00 0.00 0.00 56 1017.9
20260831204700 92 92 0.0 1.0 0.00 0.00 0.00 56 1018.0
20260831204601 92 222 0.0 1.0 0.00 0.00 0.00 55 1018.0
20260831204500 92 329 0.0 1.0 0.00 0.00 0.00 57 1018.1
20260831204401 92 308 0.0 1.0 0.00 0.00 0.00 58 1018.0
20260831204201 92 161 0.0 1.0 0.00 0.00 0.00 57 1018.1
20260831204101 92 173 0.0 1.0 0.00 0.00 0.00 54 1018.0
20260831204002 92 175 0.0 1.0 0.00 0.00 0.00 54 1018.1
20260831203901 92 212 0.0 1.0 0.00 0.00 0.00 54 1018.1
20260831203801 93 274 0.0 1.0 0.00 0.00 0.00 54 1018.0
20260831203703 93 230 0.0 1.0 0.00 0.00 0.00 54 1018.1
20260831203601 93 280 0.0 1.0 0.00 0.00 0.00 54 1018.1
20260831203504 93 221 0.0 1.0 0.00 0.00 0.00 54 1018.1
20260831203300 93 328 0.0 1.0 0.00 0.00 0.00 54 1018.0
20260831203101 93 326 0.0 1.0 0.00 0.00 0.00 54 1018.1
20260831203001 93 315 0.0 3.0 0.00 0.00 0.00 54 1018.2
20260831202702 93 163 0.0 3.0 0.00 0.00 0.00 53 1018.2
20260831202602 93 67 0.0 3.0 0.00 0.00 0.00 54 1018.2
20260831202501 93 165 0.0 8.0 0.00 0.00 0.00 54 1018.2
20260831202301 93 296 0.0 8.0 0.00 0.00 0.00 55 1018.2
20260831202201 93 344 0.0 8.0 0.00 0.00 0.00 55 1018.1
20260831202101 92 285 2.0 8.0 0.00 0.00 0.00 54 1018.1
20260831202001 92 265 0.0 8.0 0.00 0.00 0.00 54 1018.2
20260831201900 92 150 0.0 8.0 0.00 0.00 0.00 54 1018.2
20260831201802 92 184 0.0 8.0 0.00 0.00 0.00 54 1018.2
20260831201702 92 139 8.0 8.0 0.00 0.00 0.00 54 1018.2
20260831201601 92 194 4.0 6.0 0.00 0.00 0.00 55 1018.2
20260831201501 92 247 0.0 6.0 0.00 0.00 0.00 55 1018.3
20260831201302 92 190 0.0 6.0 0.00 0.00 0.00 54 1018.3
20260831201201 92 242 5.0 6.0 0.00 0.00 0.00 53 1018.3
20260831201101 92 190 3.0 6.0 0.00 0.00 0.00 53 1018.3
20260831201001 92 209 2.0 6.0 0.00 0.00 0.00 54 1018.3
20260831200902 93 275 4.0 6.0 0.00 0.00 0.00 52 1018.3
20260831200801 93 188 4.0 6.0 0.00 0.00 0.00 52 1018.3
20260831200601 93 163 5.0 6.0 0.00 0.00 0.00 53 1018.4
20260831200401 93 169 1.0 9.0 0.00 0.00 0.00 53 1018.4
20260831200304 93 146 1.0 9.0 0.00 0.00 0.00 52 1018.4
20260831200201 93 200 2.0 9.0 0.00 0.00 0.00 52 1018.5
20260831200004 93 190 3.0 9.0 0.00 0.00 0.00 53 1018.4
20260831195904 93 183 2.0 9.0 0.00 0.00 0.00 53 1018.5
20260831195802 93 262 2.0 9.0 0.00 0.00 0.00 54 1018.4
20260831195702 93 298 7.0 7.0 0.00 0.00 0.00 54 1018.5
20260831195502 93 200 1.0 5.0 0.00 0.00 0.00 51 1018.5
20260831195402 93 84 0.0 5.0 0.00 0.00 0.00 53 1018.5
20260831195306 93 174 0.0 5.0 0.00 0.00 0.00 51 1018.5
20260831195002 93 147 1.0 7.0 0.00 0.00 0.00 52 1018.6
20260831194802 93 150 2.0 14.0 0.00 0.00 0.00 52 1018.6
20260831194701 93 157 1.0 14.0 0.00 0.00 0.00 52 1018.6
20260831194602 93 325 0.0 14.0 0.00 0.00 0.00 51 1018.7
20260831194502 93 194 4.0 14.0 0.00 0.00 0.00 51 1018.7
20260831194401 93 195 2.0 14.0 0.00 0.00 0.00 50 1018.7
20260831194302 93 137 2.0 14.0 0.00 0.00 0.00 50 1018.7
20260831194201 93 139 3.0 14.0 0.00 0.00 0.00 50 1018.7
20260831194105 93 336 1.0 14.0 0.00 0.00 0.00 50 1018.7
20260831194003 93 177 2.0 14.0 0.00 0.00 0.00 51 1018.7
20260831193802 93 360 2.0 8.0 0.00 0.00 0.00 53 1018.7
20260831193703 93 136 0.0 8.0 0.00 0.00 0.00 51 1018.7
20260831193602 93 152 3.0 8.0 0.00 0.00 0.00 50 1018.8
20260831193503 93 161 4.0 8.0 0.00 0.00 0.00 51 1018.8
20260831193301 93 186 0.0 7.0 0.00 0.00 0.00 53 1018.7
20260831193201 93 186 0.0 7.0 0.00 0.00 0.00 53 1018.7
20260831193101 93 288 2.0 7.0 0.00 0.00 0.00 53 1018.8
20260831193001 93 338 0.0 7.0 0.00 0.00 0.00 52 1018.8
20260831192900 93 210 1.0 7.0 0.00 0.00 0.00 52 1018.8
20260831192601 93 177 3.0 6.0 0.00 0.00 0.00 53 1018.8
20260831192301 93 59 1.0 6.0 0.00 0.00 0.00 53 1018.8
20260831192101 93 323 5.0 6.0 0.00 0.00 0.00 53 1018.9
20260831192002 93 166 4.0 5.0 0.00 0.00 0.00 54 1018.8
20260831191600 92 111 1.0 10.0 0.00 0.00 0.00 52 1018.9
20260831191501 92 152 2.0 10.0 0.00 0.00 0.00 52 1019.0
20260831191400 92 180 5.0 10.0 0.00 0.00 0.00 52 1018.9
20260831191301 92 175 2.0 10.0 0.00 0.00 0.00 50 1018.9
20260831191100 92 241 0.0 10.0 0.00 0.00 0.00 52 1019.0
20260831191002 92 270 7.0 10.0 0.00 0.00 0.00 51 1019.0
20260831190700 92 186 2.0 7.0 0.00 0.00 0.00 52 1019.0
20260831190502 92 219 6.0 7.0 0.00 0.00 0.00 52 1019.0
20260831190402 92 263 2.0 6.0 0.00 0.00 0.00 55 1019.1
20260831190301 92 167 0.0 6.0 0.00 0.00 0.00 55 1019.0
20260831190204 92 328 4.0 8.0 0.00 0.00 0.00 55 1019.0
20260831190004 92 180 5.0 8.0 0.00 0.00 0.00 56 1018.9
20260831185802 92 180 0.0 8.0 0.00 0.00 0.00 56 1019.1
20260831185702 92 183 0.0 8.0 0.00 0.00 0.00 57 1019.0
20260831185605 92 239 0.0 8.0 0.00 0.00 0.00 56 1019.1
20260831185502 92 329 1.0 8.0 0.00 0.00 0.00 56 1019.1
20260831185402 92 301 2.0 10.0 0.00 0.00 0.00 59 1019.1
20260831185306 92 123 0.0 6.0 0.00 0.00 0.00 59 1019.1
20260831185201 91 179 0.0 6.0 0.00 0.00 0.00 58 1019.1
20260831185102 91 152 2.0 6.0 0.00 0.00 0.00 59 1019.2
20260831185001 91 202 1.0 6.0 0.00 0.00 0.00 60 1019.1
20260831184902 91 324 0.0 6.0 0.00 0.00 0.00 60 1019.2
20260831184803 91 233 0.0 6.0 0.00 0.00 0.00 60 1019.1
20260831184702 91 342 0.0 6.0 0.00 0.00 0.00 59 1019.2
20260831184604 91 313 1.0 9.0 0.00 0.00 0.00 60 1019.2
20260831184502 91 109 0.0 9.0 0.00 0.00 0.00 59 1019.2
20260831184402 91 161 1.0 9.0 0.00 0.00 0.00 60 1019.2
20260831184201 91 204 2.0 9.0 0.00 0.00 0.00 59 1019.2
20260831184103 91 174 0.0 9.0 0.00 0.00 0.00 59 1019.2
20260831184003 91 355 0.0 9.0 0.00 0.00 0.00 60 1019.2
20260831183902 91 240 4.0 9.0 0.00 0.00 0.00 60 1019.3
20260831183801 91 154 2.0 9.0 0.00 0.00 0.00 60 1019.3
20260831183703 90 296 9.0 9.0 0.00 0.00 0.00 59 1019.3
20260831183603 90 281 0.0 7.0 0.00 0.00 0.00 59 1019.4
20260831183502 90 197 0.0 7.0 0.00 0.00 0.00 58 1019.3
20260831183401 90 153 3.0 7.0 0.00 0.00 0.00 59 1019.3
20260831183303 90 207 2.0 7.0 0.00 0.00 0.00 58 1019.3
20260831183203 90 221 6.0 8.0 0.00 0.00 0.00 58 1019.3
20260831183102 90 200 5.0 6.0 0.00 0.00 0.00 58 1019.3
20260831182902 90 84 1.0 4.0 0.00 0.00 0.00 58 1019.3
20260831182802 90 41 1.0 4.0 0.00 0.00 0.00 60 1019.3
20260831182602 90 173 2.0 5.0 0.00 0.00 0.00 58 1019.4
20260831182501 90 159 2.0 5.0 0.00 0.00 0.00 59 1019.5
20260831182403 90 301 1.0 5.0 0.00 0.00 0.00 59 1019.5
20260831182202 90 263 0.0 7.0 0.00 0.00 0.00 58 1019.4
20260831182102 91 205 2.0 7.0 0.00 0.00 0.00 58 1019.5
20260831182003 91 178 2.0 7.0 0.00 0.00 0.00 59 1019.5
20260831181902 91 232 4.0 10.0 0.00 0.00 0.00 58 1019.5
20260831181803 91 246 1.0 10.0 0.00 0.00 0.00 58 1019.5
20260831181701 91 248 1.0 10.0 0.00 0.00 0.00 57 1019.5
20260831181601 91 185 1.0 10.0 0.00 0.00 0.00 57 1019.5
20260831181502 91 157 1.0 10.0 0.00 0.00 0.00 57 1019.4
20260831181403 91 349 2.0 10.0 0.00 0.00 0.00 58 1019.5
20260831181303 92 253 0.0 10.0 0.00 0.00 0.00 57 1019.5
20260831181203 92 203 0.0 10.0 0.00 0.00 0.00 57 1019.4
20260831181102 92 196 3.0 10.0 0.00 0.00 0.00 58 1019.4
20260831180902 92 197 3.0 10.0 0.00 0.00 0.00 60 1019.5
20260831180804 92 304 0.0 10.0 0.00 0.00 0.00 62 1019.5
20260831180701 92 229 2.0 10.0 0.00 0.00 0.00 59 1019.5
20260831180502 92 355 0.0 10.0 0.00 0.00 0.00 60 1019.5
20260831180403 92 138 0.0 10.0 0.00 0.00 0.00 60 1019.5
20260831180304 91 295 0.0 10.0 0.00 0.00 0.00 59 1019.6
20260831180202 91 33 0.0 6.0 0.00 0.00 0.00 60 1019.5
20260831180101 91 203 2.0 6.0 0.00 0.00 0.00 60 1019.6
20260831180005 91 147 0.0 6.0 0.00 0.00 0.00 61 1019.6
20260831175902 91 121 1.0 5.0 0.00 0.00 0.00 59 1019.5
20260831175803 91 173 2.0 5.0 0.00 0.00 0.00 60 1019.5
20260831175704 91 185 0.0 5.0 0.00 0.00 0.00 61 1019.5
20260831175603 91 296 1.0 5.0 0.00 0.00 0.00 60 1019.5
20260831175503 91 334 1.0 5.0 0.00 0.00 0.00 60 1019.6
20260831175401 91 205 2.0 5.0 0.00 0.00 0.00 60 1019.6
20260831175203 91 283 0.0 5.0 0.00 0.00 0.00 60 1019.6
20260831175103 91 162 0.0 5.0 0.00 0.00 0.00 61 1019.7
20260831175002 91 129 2.0 5.0 0.00 0.00 0.00 60 1019.6
20260831174803 91 5 2.0 7.0 0.00 0.00 0.00 61 1019.7
20260831174602 91 49 2.0 7.0 0.00 0.00 0.00 62 1019.6
20260831174504 91 169 1.0 7.0 0.00 0.00 0.00 61 1019.6
20260831174401 91 128 0.0 7.0 0.00 0.00 0.00 61 1019.7
20260831174303 91 161 4.0 7.0 0.00 0.00 0.00 60 1019.7
20260831174204 91 147 3.0 7.0 0.00 0.00 0.00 60 1019.7
20260831174102 91 191 2.0 7.0 0.00 0.00 0.00 59 1019.7
20260831174000 91 167 6.0 7.0 0.00 0.00 0.00 59 1019.7
20260831173902 91 136 4.0 8.0 0.00 0.00 0.00 61 1019.8
20260831173802 91 209 1.0 8.0 0.00 0.00 0.00 60 1019.8
20260831173702 91 238 3.0 8.0 0.00 0.00 0.00 60 1019.7
20260831173603 91 307 3.0 8.0 0.00 0.00 0.00 60 1019.7
20260831173502 91 179 0.0 8.0 0.00 0.00 0.00 61 1019.8
20260831173402 91 274 6.0 8.0 0.00 0.00 0.00 61 1019.8
20260831173203 91 189 0.0 8.0 0.00 0.00 0.00 60 1019.8
20260831173003 91 190 0.0 6.0 0.00 0.00 0.00 60 1019.8
20260831172802 91 236 3.0 7.0 0.00 0.00 0.00 61 1019.9
20260831172702 91 283 2.0 6.0 0.00 0.00 0.00 61 1019.8
20260831172602 91 24 3.0 6.0 0.00 0.00 0.00 61 1019.8
20260831172502 91 202 2.0 6.0 0.00 0.00 0.00 62 1019.8
20260831172402 91 252 2.0 6.0 0.00 0.00 0.00 62 1019.8
20260831172306 91 300 1.0 6.0 0.00 0.00 0.00 62 1019.8
20260831172201 91 58 0.0 6.0 0.00 0.00 0.00 61 1019.8
20260831172102 91 267 0.0 6.0 0.00 0.00 0.00 62 1019.8
20260831172004 90 146 1.0 8.0 0.00 0.00 0.00 62 1019.8
20260831171903 90 205 0.0 8.0 0.00 0.00 0.00 62 1019.8
20260831171802 90 167 1.0 8.0 0.00 0.00 0.00 62 1019.8
20260831171702 90 19 1.0 8.0 0.00 0.00 0.00 63 1019.8
20260831171603 90 120 2.0 8.0 0.00 0.00 0.00 63 1019.7
20260831171102 90 200 2.0 6.0 0.00 0.00 0.00 63 1019.8
20260831171003 90 243 2.0 6.0 0.00 0.00 0.00 63 1019.8
20260831170903 90 207 4.0 6.0 0.00 0.00 0.00 63 1019.7
20260831170804 90 192 4.0 6.0 0.00 0.00 0.00 63 1019.7
20260831170702 90 86 2.0 8.0 0.00 0.00 0.00 62 1019.7
20260831170502 90 201 3.0 8.0 0.00 0.00 0.00 62 1019.8
20260831170401 90 272 3.0 8.0 0.00 0.00 0.00 62 1019.8
20260831170303 90 196 1.0 8.0 0.00 0.00 0.00 63 1019.8
20260831170202 90 149 1.0 8.0 0.00 0.00 0.00 64 1019.9
20260831165901 90 164 4.0 9.0 0.00 0.00 0.00 61 1019.9
20260831165802 90 113 3.0 9.0 0.00 0.00 0.00 63 1019.9
20260831165703 90 5 5.0 9.0 0.00 0.00 0.00 62 1019.8
20260831165601 90 202 1.0 9.0 0.00 0.00 0.00 62 1019.9
20260831165501 90 321 4.0 9.0 0.00 0.00 0.00 62 1019.9
20260831165401 90 94 3.0 9.0 0.00 0.00 0.00 62 1019.9
20260831165301 90 172 3.0 9.0 0.00 0.00 0.00 62 1019.9
20260831165202 90 196 2.0 9.0 0.00 0.00 0.00 62 1020.0
20260831165103 90 179 5.0 9.0 0.00 0.00 0.00 63 1019.9
20260831165000 90 154 2.0 9.0 0.00 0.00 0.00 62 1019.9
20260831164901 90 171 2.0 9.0 0.00 0.00 0.00 63 1019.9
20260831164703 90 247 0.0 6.0 0.00 0.00 0.00 64 1020.0
20260831164601 90 178 0.0 6.0 0.00 0.00 0.00 64 1020.0
20260831164401 90 341 2.0 6.0 0.00 0.00 0.00 63 1020.0
20260831164301 90 171 2.0 6.0 0.00 0.00 0.00 63 1020.0
20260831164201 89 200 2.0 8.0 0.00 0.00 0.00 64 1020.0
20260831164101 89 169 1.0 8.0 0.00 0.00 0.00 64 1020.0
20260831163901 89 122 2.0 8.0 0.00 0.00 0.00 63 1020.0
20260831163801 89 177 1.0 8.0 0.00 0.00 0.00 63 1020.1
20260831163702 89 185 2.0 8.0 0.00 0.00 0.00 64 1020.0
20260831163602 89 281 1.0 8.0 0.00 0.00 0.00 63 1020.0
20260831163500 89 284 3.0 8.0 0.00 0.00 0.00 63 1020.0
20260831163401 89 200 2.0 8.0 0.00 0.00 0.00 63 1020.0
20260831163302 89 171 2.0 10.0 0.00 0.00 0.00 63 1020.0
20260831163201 89 183 0.0 10.0 0.00 0.00 0.00 63 1020.0
20260831163101 89 157 3.0 10.0 0.00 0.00 0.00 63 1020.0
20260831163001 89 173 2.0 10.0 0.00 0.00 0.00 62 1020.0
20260831162901 89 94 2.0 10.0 0.00 0.00 0.00 63 1020.1
20260831162802 89 254 0.0 10.0 0.00 0.00 0.00 63 1020.0
20260831162700 89 186 5.0 10.0 0.00 0.00 0.00 63 1020.0
20260831162600 90 189 2.0 10.0 0.00 0.00 0.00 63 1020.0
20260831162502 90 173 7.0 10.0 0.00 0.00 0.00 62 1020.0
20260831162400 89 355 6.0 10.0 0.00 0.00 0.00 63 1020.0
20260831162201 89 337 3.0 8.0 0.00 0.00 0.00 65 1020.0
20260831162001 89 360 2.0 8.0 0.00 0.00 0.00 64 1020.0
20260831161902 89 182 1.0 8.0 0.00 0.00 0.00 64 1020.0
20260831161801 89 136 0.0 8.0 0.00 0.00 0.00 63 1020.0
20260831161701 89 186 0.0 10.0 0.00 0.00 0.00 64 1020.0
20260831161603 89 165 1.0 12.0 0.00 0.00 0.00 63 1019.9
20260831161503 89 154 4.0 12.0 0.00 0.00 0.00 63 1020.0
20260831161301 89 158 0.0 12.0 0.00 0.00 0.00 63 1020.0
20260831161102 89 182 3.0 12.0 0.00 0.00 0.00 64 1020.0
20260831161003 89 360 2.0 12.0 0.00 0.00 0.00 65 1020.0
20260831160901 89 196 1.0 12.0 0.00 0.00 0.00 64 1020.0
20260831160701 89 350 1.0 7.0 0.00 0.00 0.00 67 1020.1
20260831160601 89 186 0.0 7.0 0.00 0.00 0.00 65 1019.9
20260831160401 88 172 2.0 8.0 0.00 0.00 0.00 65 1019.9
20260831160302 88 42 2.0 8.0 0.00 0.00 0.00 65 1020.0
20260831160201 88 159 2.0 8.0 0.00 0.00 0.00 65 1020.0
20260831160001 88 176 0.0 5.0 0.00 0.00 0.00 66 1019.9
20260831155801 88 171 1.0 5.0 0.00 0.00 0.00 66 1019.9
20260831155701 88 164 0.0 5.0 0.00 0.00 0.00 66 1019.9
20260831155601 88 157 0.0 5.0 0.00 0.00 0.00 66 1019.9
20260831155501 88 134 0.0 5.0 0.00 0.00 0.00 67 1019.9
20260831155401 88 132 1.0 5.0 0.00 0.00 0.00 68 1019.9
20260831155306 87 174 2.0 4.0 0.00 0.00 0.00 67 1019.9
20260831155201 87 192 1.0 4.0 0.00 0.00 0.00 68 1019.8
20260831155101 87 182 3.0 4.0 0.00 0.00 0.00 67 1019.9
20260831155003 87 167 4.0 4.0 0.00 0.00 0.00 67 1019.9
20260831154801 87 34 0.0 6.0 0.00 0.00 0.00 68 1019.9
20260831154601 87 229 0.0 7.0 0.00 0.00 0.00 68 1019.9
20260831154301 87 164 1.0 7.0 0.00 0.00 0.00 67 1019.9
20260831154201 86 239 1.0 7.0 0.00 0.00 0.00 68 1019.8
20260831154103 86 317 1.0 7.0 0.00 0.00 0.00 68 1019.9
20260831154004 86 259 0.0 7.0 0.00 0.00 0.00 68 1019.8
20260831153902 86 281 1.0 7.0 0.00 0.00 0.00 69 1019.9
20260831153701 86 334 2.0 4.0 0.00 0.00 0.00 70 1019.9
20260831153602 86 300 0.0 4.0 0.00 0.00 0.00 69 1020.0
20260831153300 86 275 2.0 4.0 0.00 0.00 0.00 69 1019.9
20260831153201 86 275 1.0 4.0 0.00 0.00 0.00 69 1019.9
20260831153102 86 149 0.0 4.0 0.00 0.00 0.00 69 1020.0
20260831153003 86 248 0.0 4.0 0.00 0.00 0.00 68 1020.0
20260831152801 86 158 1.0 6.0 0.00 0.00 0.00 69 1020.0
20260831152701 86 223 0.0 6.0 0.00 0.00 0.00 68 1020.0
20260831152601 86 195 1.0 6.0 0.00 0.00 0.00 68 1020.0
20260831152501 86 195 2.0 6.0 0.00 0.00 0.00 68 1020.0
20260831152402 86 113 1.0 6.0 0.00 0.00 0.00 68 1020.0
20260831152306 86 355 0.0 6.0 0.00 0.00 0.00 69 1019.9
20260831152201 86 212 0.0 6.0 0.00 0.00 0.00 68 1020.0
20260831152102 86 252 1.0 8.0 0.00 0.00 0.00 68 1019.9
20260831152001 86 265 1.0 8.0 0.00 0.00 0.00 68 1019.9
20260831151901 86 175 2.0 8.0 0.00 0.00 0.00 68 1019.9
20260831151802 86 160 4.0 8.0 0.00 0.00 0.00 69 1019.9
20260831151702 85 217 1.0 8.0 0.00 0.00 0.00 68 1019.9
20260831151602 85 186 1.0 8.0 0.00 0.00 0.00 68 1019.8
20260831151503 85 137 2.0 8.0 0.00 0.00 0.00 68 1019.9
20260831151403 85 327 3.0 8.0 0.00 0.00 0.00 68 1020.0
20260831151302 85 98 1.0 8.0 0.00 0.00 0.00 68 1020.0
20260831151201 85 298 4.0 7.0 0.00 0.00 0.00 68 1020.0
20260831151101 85 275 0.0 7.0 0.00 0.00 0.00 68 1019.9
20260831150902 85 209 1.0 4.0 0.00 0.00 0.00 68 1020.0
20260831150801 85 277 0.0 4.0 0.00 0.00 0.00 68 1020.0
20260831150701 84 340 1.0 4.0 0.00 0.00 0.00 67 1020.0
20260831150601 84 193 3.0 4.0 0.00 0.00 0.00 67 1020.0
20260831150501 84 188 1.0 4.0 0.00 0.00 0.00 68 1020.0
20260831150401 84 137 0.0 4.0 0.00 0.00 0.00 68 1020.1
20260831150303 84 158 0.0 5.0 0.00 0.00 0.00 68 1020.0
20260831150004 83 246 1.0 5.0 0.00 0.00 0.00 68 1019.9
20260831145901 83 309 1.0 5.0 0.00 0.00 0.00 68 1020.0
20260831145701 83 198 3.0 5.0 0.00 0.00 0.00 68 1020.0
20260831145601 83 334 4.0 5.0 0.00 0.00 0.00 68 1020.0
20260831145401 83 197 2.0 5.0 0.00 0.00 0.00 69 1020.0
20260831145300 83 199 4.0 5.0 0.00 0.00 0.00 69 1020.0
20260831145203 83 167 3.0 5.0 0.00 0.00 0.00 69 1020.0
20260831145101 83 170 2.0 5.0 0.00 0.00 0.00 69 1020.0
20260831145001 82 31 0.0 4.0 0.00 0.00 0.00 70 1020.0
20260831144901 82 284 1.0 4.0 0.00 0.00 0.00 70 1020.1
20260831144801 82 182 0.0 4.0 0.00 0.00 0.00 70 1020.0
20260831144702 82 308 0.0 4.0 0.00 0.00 0.00 69 1020.0
20260831144601 82 175 0.0 4.0 0.00 0.00 0.00 69 1020.0
20260831144501 82 175 1.0 4.0 0.00 0.00 0.00 69 1019.9
20260831144401 82 212 0.0 4.0 0.00 0.00 0.00 69 1019.9
20260831144302 82 259 0.0 4.0 0.00 0.00 0.00 69 1019.9
20260831143900 82 299 1.0 2.0 0.00 0.00 0.00 70 1019.9
20260831143802 82 185 0.0 2.0 0.00 0.00 0.00 69 1019.9
20260831143700 82 173 0.0 2.0 0.00 0.00 0.00 70 1019.9
20260831143601 82 217 0.0 4.0 0.00 0.00 0.00 70 1019.9
20260831143501 81 264 0.0 4.0 0.00 0.00 0.00 70 1019.9
20260831143401 81 107 0.0 4.0 0.00 0.00 0.00 70 1019.8
20260831143301 81 229 0.0 4.0 0.00 0.00 0.00 70 1019.8
20260831143201 81 181 0.0 4.0 0.00 0.00 0.00 70 1019.8
20260831143104 81 333 1.0 4.0 0.00 0.00 0.00 71 1019.8
20260831143001 81 184 2.0 4.0 0.00 0.00 0.00 70 1019.7
20260831142901 81 309 0.0 4.0 0.00 0.00 0.00 71 1019.7
20260831142702 81 283 1.0 4.0 0.00 0.00 0.00 71 1019.7
20260831142602 81 335 2.0 4.0 0.00 0.00 0.00 71 1019.7
20260831142402 80 342 1.0 4.0 0.00 0.00 0.00 71 1019.7
20260831142301 80 180 1.0 4.0 0.00 0.00 0.00 72 1019.6
20260831142202 80 234 1.0 4.0 0.00 0.00 0.00 71 1019.6
20260831142102 80 183 2.0 4.0 0.00 0.00 0.00 72 1019.6
20260831142002 80 275 0.0 2.0 0.00 0.00 0.00 72 1019.7
20260831141901 80 182 0.0 2.0 0.00 0.00 0.00 72 1019.6
20260831141801 80 188 0.0 2.0 0.00 0.00 0.00 72 1019.7
20260831141703 80 193 0.0 2.0 0.00 0.00 0.00 73 1019.6
20260831141502 79 175 1.0 2.0 0.00 0.00 0.00 73 1019.7
20260831141301 79 215 0.0 2.0 0.00 0.00 0.00 73 1019.7
20260831141201 79 178 0.0 2.0 0.00 0.00 0.00 73 1019.7
20260831141103 79 185 0.0 2.0 0.00 0.00 0.00 73 1019.7
20260831141003 79 177 0.0 2.0 0.00 0.00 0.00 74 1019.7
20260831140901 79 255 0.0 3.0 0.00 0.00 0.00 73 1019.7
20260831140800 79 255 0.0 3.0 0.00 0.00 0.00 73 1019.7
20260831140601 79 170 0.0 3.0 0.00 0.00 0.00 73 1019.7
20260831140500 79 160 0.0 3.0 0.00 0.00 0.00 73 1019.7
20260831140401 79 171 0.0 3.0 0.00 0.00 0.00 73 1019.7
20260831140200 79 228 0.0 5.0 0.00 0.00 0.00 73 1019.7
20260831140000 79 251 0.0 5.0 0.00 0.00 0.00 73 1019.7
20260831135902 79 178 1.0 5.0 0.00 0.00 0.00 73 1019.7
20260831135801 79 194 2.0 5.0 0.00 0.00 0.00 73 1019.7
20260831135700 79 184 2.0 5.0 0.00 0.00 0.00 73 1019.7
20260831135602 79 182 0.0 5.0 0.00 0.00 0.00 73 1019.7
20260831135501 79 219 1.0 5.0 0.00 0.00 0.00 73 1019.6
20260831135401 79 217 1.0 5.0 0.00 0.00 0.00 73 1019.7
20260831135302 79 198 0.0 4.0 0.00 0.00 0.00 74 1019.6
20260831135100 79 178 0.0 4.0 0.00 0.00 0.00 73 1019.6
20260831135002 79 184 3.0 4.0 0.00 0.00 0.00 74 1019.6
20260831134901 79 180 2.0 4.0 0.00 0.00 0.00 73 1019.6
20260831134801 79 210 0.0 4.0 0.00 0.00 0.00 73 1019.7
20260831134701 79 150 2.0 4.0 0.00 0.00 0.00 74 1019.6
20260831134604 79 232 0.0 3.0 0.00 0.00 0.00 74 1019.6
20260831134501 79 162 0.0 3.0 0.00 0.00 0.00 74 1019.7
20260831134402 79 248 0.0 3.0 0.00 0.00 0.00 74 1019.6
20260831134300 78 250 0.0 3.0 0.00 0.00 0.00 74 1019.6
20260831134201 78 294 0.0 3.0 0.00 0.00 0.00 74 1019.6
20260831134101 78 321 0.0 2.0 0.00 0.00 0.00 74 1019.7
20260831134001 78 190 0.0 2.0 0.00 0.00 0.00 74 1019.6
20260831133901 78 184 0.0 2.0 0.00 0.00 0.00 74 1019.6
20260831133802 78 184 0.0 2.0 0.00 0.00 0.00 74 1019.6
20260831133702 78 317 2.0 2.0 0.00 0.00 0.00 74 1019.7
20260831133502 78 171 0.0 2.0 0.00 0.00 0.00 74 1019.7
20260831133400 78 164 0.0 2.0 0.00 0.00 0.00 74 1019.6
20260831133302 78 136 0.0 2.0 0.00 0.00 0.00 74 1019.7
20260831133202 78 170 0.0 3.0 0.00 0.00 0.00 74 1019.7
20260831133102 78 171 0.0 3.0 0.00 0.00 0.00 74 1019.7
20260831133004 78 301 0.0 3.0 0.00 0.00 0.00 75 1019.6
20260831132902 78 167 0.0 3.0 0.00 0.00 0.00 75 1019.6
20260831132801 78 329 0.0 3.0 0.00 0.00 0.00 74 1019.7
20260831132701 78 242 0.0 3.0 0.00 0.00 0.00 75 1019.6
20260831132600 78 215 0.0 3.0 0.00 0.00 0.00 75 1019.6
20260831132501 78 182 0.0 3.0 0.00 0.00 0.00 75 1019.7
20260831132301 78 169 0.0 1.0 0.00 0.00 0.00 75 1019.7
20260831132002 78 290 0.0 0.0 0.00 0.00 0.00 76 1019.7
20260831131900 78 196 0.0 0.0 0.00 0.00 0.00 76 1019.7
20260831131802 78 259 0.0 0.0 0.00 0.00 0.00 76 1019.7
20260831131701 77 255 0.0 0.0 0.00 0.00 0.00 76 1019.7
20260831131501 77 231 0.0 0.0 0.00 0.00 0.00 76 1019.7
20260831131401 77 216 0.0 0.0 0.00 0.00 0.00 76 1019.7
20260831131301 77 215 0.0 0.0 0.00 0.00 0.00 76 1019.7
20260831131102 77 222 0.0 0.0 0.00 0.00 0.00 76 1019.7
20260831131001 77 217 0.0 0.0 0.00 0.00 0.00 76 1019.7
20260831130900 77 221 0.0 0.0 0.00 0.00 0.00 75 1019.7
20260831130800 77 169 0.0 0.0 0.00 0.00 0.00 76 1019.7
20260831130701 77 169 0.0 0.0 0.00 0.00 0.00 76 1019.7
20260831130501 77 228 0.0 0.0 0.00 0.00 0.00 76 1019.7
20260831130402 77 228 0.0 0.0 0.00 0.00 0.00 76 1019.6
20260831130303 77 301 0.0 0.0 0.00 0.00 0.00 76 1019.6
20260831130201 77 140 0.0 0.0 0.00 0.00 0.00 76 1019.6
20260831130100 77 128 0.0 0.0 0.00 0.00 0.00 76 1019.6
20260831125905 77 192 0.0 0.0 0.00 0.00 0.00 76 1019.5
20260831125800 77 190 0.0 0.0 0.00 0.00 0.00 76 1019.6
20260831125603 77 171 0.0 1.0 0.00 0.00 0.00 76 1019.5
20260831125502 77 180 0.0 1.0 0.00 0.00 0.00 76 1019.5
20260831125400 77 177 0.0 3.0 0.00 0.00 0.00 77 1019.5
20260831125306 77 252 0.0 4.0 0.00 0.00 0.00 77 1019.5
20260831125103 77 284 0.0 4.0 0.00 0.00 0.00 77 1019.5
20260831125004 77 300 0.0 4.0 0.00 0.00 0.00 77 1019.5
20260831124905 77 214 0.0 4.0 0.00 0.00 0.00 77 1019.5
20260831124801 76 194 0.0 4.0 0.00 0.00 0.00 77 1019.5
20260831124701 76 194 1.0 4.0 0.00 0.00 0.00 76 1019.4
20260831124500 76 180 0.0 4.0 0.00 0.00 0.00 77 1019.5
20260831124401 76 194 2.0 4.0 0.00 0.00 0.00 77 1019.4
20260831124301 76 213 4.0 4.0 0.00 0.00 0.00 77 1019.5
20260831124202 76 219 1.0 3.0 0.00 0.00 0.00 77 1019.5
20260831124100 76 261 0.0 3.0 0.00 0.00 0.00 77 1019.5
20260831124002 76 261 1.0 3.0 0.00 0.00 0.00 77 1019.4
20260831123801 76 265 0.0 3.0 0.00 0.00 0.00 77 1019.5
20260831123702 76 344 2.0 3.0 0.00 0.00 0.00 77 1019.5
20260831123501 76 270 0.0 1.0 0.00 0.00 0.00 78 1019.4
20260831123302 76 193 0.0 1.0 0.00 0.00 0.00 78 1019.3
20260831123201 76 192 0.0 1.0 0.00 0.00 0.00 78 1019.4
20260831123101 76 330 0.0 0.0 0.00 0.00 0.00 78 1019.4
20260831123000 76 167 0.0 3.0 0.00 0.00 0.00 78 1019.4
20260831122900 76 282 0.0 3.0 0.00 0.00 0.00 78 1019.3
20260831122701 75 243 0.0 3.0 0.00 0.00 0.00 78 1019.4
20260831122601 75 202 0.0 3.0 0.00 0.00 0.00 79 1019.4
20260831122500 75 287 0.0 3.0 0.00 0.00 0.00 79 1019.4
20260831122402 75 283 0.0 3.0 0.00 0.00 0.00 79 1019.4
20260831122300 75 289 0.0 3.0 0.00 0.00 0.00 79 1019.3
20260831122201 75 186 0.0 3.0 0.00 0.00 0.00 79 1019.4
20260831122101 75 171 1.0 3.0 0.00 0.00 0.00 79 1019.4
20260831121901 75 192 0.0 0.0 0.00 0.00 0.00 79 1019.3
20260831121800 75 194 0.0 0.0 0.00 0.00 0.00 79 1019.3
20260831121701 75 183 0.0 0.0 0.00 0.00 0.00 80 1019.4
20260831121600 75 175 0.0 0.0 0.00 0.00 0.00 80 1019.4
20260831121502 75 208 0.0 0.0 0.00 0.00 0.00 80 1019.3
20260831121400 75 339 0.0 0.0 0.00 0.00 0.00 80 1019.3
20260831121301 75 219 0.0 0.0 0.00 0.00 0.00 80 1019.4
20260831121200 74 219 0.0 0.0 0.00 0.00 0.00 80 1019.3
20260831121101 74 248 0.0 0.0 0.00 0.00 0.00 80 1019.4
20260831121001 74 248 0.0 0.0 0.00 0.00 0.00 80 1019.3
20260831120900 74 263 0.0 0.0 0.00 0.00 0.00 80 1019.3
20260831120801 74 211 0.0 0.0 0.00 0.00 0.00 80 1019.4
20260831120702 74 283 0.0 0.0 0.00 0.00 0.00 80 1019.5
20260831120501 74 246 0.0 0.0 0.00 0.00 0.00 80 1019.3
20260831120301 74 207 0.0 0.0 0.00 0.00 0.00 80 1019.4
20260831120200 74 207 0.0 0.0 0.00 0.00 0.00 80 1019.3
20260831120001 74 208 0.0 0.0 0.00 0.00 0.00 80 1019.3
20260831115900 74 208 0.0 0.0 0.00 0.00 0.00 80 1019.4
20260831115802 74 202 0.0 0.0 0.00 0.00 0.00 80 1019.4
20260831115601 74 215 0.0 0.0 0.00 0.00 0.00 80 1019.3
20260831115502 74 215 0.0 0.0 0.00 0.00 0.00 80 1019.3
20260831115401 74 215 0.0 0.0 0.00 0.00 0.00 80 1019.3
20260831115300 74 215 0.0 0.0 0.00 0.00 0.00 80 1019.3
20260831115200 74 215 0.0 0.0 0.00 0.00 0.00 80 1019.3
20260831115101 74 215 0.0 0.0 0.00 0.00 0.00 80 1019.3
20260831115001 74 215 0.0 0.0 0.00 0.00 0.00 80 1019.3
20260831114901 74 215 0.0 0.0 0.00 0.00 0.00 80 1019.3
20260831114802 74 215 0.0 0.0 0.00 0.00 0.00 79 1019.2
20260831114701 74 187 0.0 0.0 0.00 0.00 0.00 79 1019.3
20260831114601 74 177 0.0 0.0 0.00 0.00 0.00 79 1019.2
20260831114501 74 177 0.0 0.0 0.00 0.00 0.00 79 1019.3
20260831114400 74 177 0.0 0.0 0.00 0.00 0.00 79 1019.2
20260831114301 74 177 0.0 0.0 0.00 0.00 0.00 79 1019.3
20260831114200 74 177 0.0 0.0 0.00 0.00 0.00 80 1019.3
20260831114102 74 177 0.0 0.0 0.00 0.00 0.00 80 1019.2
20260831114001 74 185 0.0 0.0 0.00 0.00 0.00 79 1019.2
20260831113902 74 185 0.0 0.0 0.00 0.00 0.00 79 1019.1
20260831113800 74 174 0.0 0.0 0.00 0.00 0.00 79 1019.2
20260831113701 74 9 0.0 0.0 0.00 0.00 0.00 79 1019.2
20260831113501 74 286 0.0 0.0 0.00 0.00 0.00 79 1019.1
20260831113402 74 279 0.0 0.0 0.00 0.00 0.00 79 1019.1
20260831113200 74 275 0.0 0.0 0.00 0.00 0.00 79 1019.1
20260831113101 74 277 0.0 0.0 0.00 0.00 0.00 79 1019.1
20260831113001 74 277 0.0 0.0 0.00 0.00 0.00 79 1019.1
20260831112901 74 276 0.0 0.0 0.00 0.00 0.00 79 1019.1
20260831112801 74 231 0.0 0.0 0.00 0.00 0.00 79 1019.1
20260831112701 74 231 0.0 0.0 0.00 0.00 0.00 79 1019.1
20260831112601 74 231 0.0 0.0 0.00 0.00 0.00 79 1019.1
20260831112501 74 231 0.0 0.0 0.00 0.00 0.00 79 1019.1
20260831112401 74 231 0.0 0.0 0.00 0.00 0.00 79 1019.1
20260831112300 74 231 0.0 0.0 0.00 0.00 0.00 79 1019.1
20260831112200 74 229 0.0 0.0 0.00 0.00 0.00 79 1019.0
20260831112001 74 232 0.0 0.0 0.00 0.00 0.00 79 1019.1
20260831111901 74 229 0.0 0.0 0.00 0.00 0.00 79 1019.1
20260831111801 74 215 0.0 0.0 0.00 0.00 0.00 79 1019.0
20260831111701 74 215 0.0 0.0 0.00 0.00 0.00 78 1019.1
20260831111601 74 219 0.0 0.0 0.00 0.00 0.00 78 1019.0
20260831111501 74 219 0.0 0.0 0.00 0.00 0.00 78 1018.9
20260831111300 74 281 0.0 0.0 0.00 0.00 0.00 78 1018.9
20260831111202 74 277 0.0 0.0 0.00 0.00 0.00 78 1019.0
20260831111102 75 304 0.0 0.0 0.00 0.00 0.00 78 1019.0
20260831110904 75 306 0.0 0.0 0.00 0.00 0.00 78 1019.0
20260831110801 75 307 0.0 0.0 0.00 0.00 0.00 78 1018.9
20260831110601 75 307 0.0 0.0 0.00 0.00 0.00 78 1018.9
20260831110503 75 215 0.0 0.0 0.00 0.00 0.00 78 1018.9
20260831110400 75 245 0.0 0.0 0.00 0.00 0.00 78 1018.9
20260831110201 75 245 0.0 0.0 0.00 0.00 0.00 78 1018.8
20260831110100 75 245 0.0 0.0 0.00 0.00 0.00 78 1018.8
20260831110003 75 235 0.0 0.0 0.00 0.00 0.00 78 1018.8
20260831105700 75 234 0.0 0.0 0.00 0.00 0.00 78 1018.8
20260831105601 75 234 0.0 0.0 0.00 0.00 0.00 78 1018.8
20260831105500 75 213 0.0 0.0 0.00 0.00 0.00 78 1018.8
20260831105301 75 213 0.0 0.0 0.00 0.00 0.00 78 1018.8
20260831105200 75 243 0.0 0.0 0.00 0.00 0.00 78 1018.8
20260831105100 75 174 0.0 0.0 0.00 0.00 0.00 78 1018.8
20260831105001 75 174 0.0 0.0 0.00 0.00 0.00 78 1018.8
20260831104901 75 144 0.0 0.0 0.00 0.00 0.00 78 1018.8
20260831104802 75 257 0.0 0.0 0.00 0.00 0.00 78 1018.8
20260831104700 75 222 0.0 0.0 0.00 0.00 0.00 78 1018.8
20260831104600 75 231 0.0 0.0 0.00 0.00 0.00 78 1018.7
20260831104500 75 239 0.0 0.0 0.00 0.00 0.00 78 1018.7
20260831104401 75 239 0.0 0.0 0.00 0.00 0.00 78 1018.7
20260831104301 75 240 0.0 0.0 0.00 0.00 0.00 78 1018.7
20260831104202 75 240 0.0 0.0 0.00 0.00 0.00 78 1018.6
20260831104100 75 240 0.0 0.0 0.00 0.00 0.00 78 1018.6
20260831104000 75 241 0.0 0.0 0.00 0.00 0.00 78 1018.5
20260831103803 75 241 0.0 0.0 0.00 0.00 0.00 78 1018.6
20260831103702 75 241 0.0 0.0 0.00 0.00 0.00 77 1018.6
20260831103602 75 241 0.0 0.0 0.00 0.00 0.00 77 1018.5
20260831103501 75 241 0.0 0.0 0.00 0.00 0.00 77 1018.5
20260831103402 75 241 0.0 0.0 0.00 0.00 0.00 77 1018.5
20260831103302 75 241 0.0 0.0 0.00 0.00 0.00 78 1018.5
20260831103200 75 241 0.0 0.0 0.00 0.00 0.00 77 1018.5
20260831103059 75 241 0.0 0.0 0.00 0.00 0.00 77 1018.6
20260831103000 75 241 0.0 0.0 0.00 0.00 0.00 77 1018.5
20260831102900 75 241 0.0 0.0 0.00 0.00 0.00 77 1018.5
20260831102659 75 259 0.0 0.0 0.00 0.00 0.00 78 1018.4
20260831102601 75 254 0.0 0.0 0.00 0.00 0.00 77 1018.5
20260831102501 75 254 0.0 0.0 0.00 0.00 0.00 77 1018.4
20260831102359 75 254 0.0 0.0 0.00 0.00 0.00 77 1018.4
20260831102300 75 225 0.0 0.0 0.00 0.00 0.00 77 1018.4
20260831102159 75 239 0.0 0.0 0.00 0.00 0.00 77 1018.4
20260831102059 75 239 0.0 0.0 0.00 0.00 0.00 77 1018.5
20260831101959 75 239 0.0 0.0 0.00 0.00 0.00 77 1018.4
20260831101900 75 239 0.0 0.0 0.00 0.00 0.00 78 1018.4
20260831101700 75 239 0.0 0.0 0.00 0.00 0.00 77 1018.4
20260831101600 75 239 0.0 0.0 0.00 0.00 0.00 77 1018.4
20260831101500 75 239 0.0 0.0 0.00 0.00 0.00 77 1018.4
20260831101400 75 217 0.0 0.0 0.00 0.00 0.00 77 1018.5
20260831101259 75 217 0.0 0.0 0.00 0.00 0.00 77 1018.4
20260831101201 75 217 0.0 0.0 0.00 0.00 0.00 77 1018.4
20260831101000 75 217 0.0 0.0 0.00 0.00 0.00 77 1018.3
20260831100801 75 217 0.0 0.0 0.00 0.00 0.00 77 1018.4
20260831100700 75 217 0.0 0.0 0.00 0.00 0.00 77 1018.3
20260831100559 75 217 0.0 0.0 0.00 0.00 0.00 77 1018.3
20260831100501 75 217 0.0 0.0 0.00 0.00 0.00 77 1018.3
20260831100400 75 217 0.0 0.0 0.00 0.00 0.00 77 1018.2
20260831100300 75 248 0.0 0.0 0.00 0.00 0.00 77 1018.3
20260831100100 75 248 0.0 0.0 0.00 0.00 0.00 77 1018.3
20260831095900 75 248 0.0 0.0 0.00 0.00 0.00 77 1018.4
20260831095801 75 248 0.0 0.0 0.00 0.00 0.00 77 1018.3
20260831095701 75 248 0.0 0.0 0.00 0.00 0.00 77 1018.3
20260831095600 75 248 0.0 0.0 0.00 0.00 0.00 77 1018.3
20260831095502 75 248 0.0 0.0 0.00 0.00 0.00 77 1018.3
20260831095402 75 227 0.0 0.0 0.00 0.00 0.00 77 1018.3
20260831095301 75 227 0.0 0.0 0.00 0.00 0.00 77 1018.2
20260831095202 75 227 0.0 0.0 0.00 0.00 0.00 77 1018.3
20260831095100 75 227 0.0 0.0 0.00 0.00 0.00 77 1018.2
20260831095001 75 227 0.0 0.0 0.00 0.00 0.00 77 1018.3
20260831094901 75 227 0.0 0.0 0.00 0.00 0.00 77 1018.2
20260831094801 75 227 0.0 0.0 0.00 0.00 0.00 77 1018.2
20260831094700 75 227 0.0 0.0 0.00 0.00 0.00 77 1018.2
20260831094501 75 227 0.0 0.0 0.00 0.00 0.00 77 1018.2
20260831094401 75 227 0.0 0.0 0.00 0.00 0.00 77 1018.2
20260831094301 75 227 0.0 0.0 0.00 0.00 0.00 77 1018.2
20260831094201 75 227 0.0 0.0 0.00 0.00 0.00 77 1018.3
20260831094101 75 227 0.0 0.0 0.00 0.00 0.00 77 1018.2
20260831094000 75 227 0.0 0.0 0.00 0.00 0.00 77 1018.2
20260831093901 75 227 0.0 0.0 0.00 0.00 0.00 77 1018.2
20260831093800 75 227 0.0 0.0 0.00 0.00 0.00 77 1018.2
20260831093701 75 227 0.0 0.0 0.00 0.00 0.00 77 1018.2
20260831093600 75 227 0.0 0.0 0.00 0.00 0.00 76 1018.3
20260831093501 75 227 0.0 0.0 0.00 0.00 0.00 76 1018.3
20260831093401 75 227 0.0 0.0 0.00 0.00 0.00 76 1018.3
20260831093301 75 227 0.0 0.0 0.00 0.00 0.00 76 1018.3
20260831093200 75 227 0.0 0.0 0.00 0.00 0.00 76 1018.3
20260831093100 75 227 0.0 0.0 0.00 0.00 0.00 76 1018.3
20260831093002 76 227 0.0 0.0 0.00 0.00 0.00 76 1018.3
20260831092903 76 227 0.0 0.0 0.00 0.00 0.00 76 1018.3
20260831092801 76 227 0.0 0.0 0.00 0.00 0.00 76 1018.3
20260831092702 76 227 0.0 0.0 0.00 0.00 0.00 76 1018.3
20260831092601 76 227 0.0 0.0 0.00 0.00 0.00 76 1018.3
20260831092502 76 227 0.0 0.0 0.00 0.00 0.00 76 1018.3
20260831092401 76 227 0.0 0.0 0.00 0.00 0.00 76 1018.3
20260831092300 76 227 0.0 0.0 0.00 0.00 0.00 76 1018.3
20260831092202 76 227 0.0 0.0 0.00 0.00 0.00 76 1018.3
20260831092100 76 227 0.0 0.0 0.00 0.00 0.00 76 1018.3
20260831092002 76 227 0.0 0.0 0.00 0.00 0.00 76 1018.2
20260831091901 76 227 0.0 0.0 0.00 0.00 0.00 76 1018.2
20260831091800 76 227 0.0 0.0 0.00 0.00 0.00 76 1018.3
20260831091701 76 227 0.0 0.0 0.00 0.00 0.00 76 1018.3
20260831091601 76 227 0.0 0.0 0.00 0.00 0.00 76 1018.3
20260831091401 76 227 0.0 0.0 0.00 0.00 0.00 76 1018.3
20260831091300 76 227 0.0 0.0 0.00 0.00 0.00 76 1018.3
20260831091202 76 227 0.0 0.0 0.00 0.00 0.00 76 1018.3
20260831091102 76 227 0.0 0.0 0.00 0.00 0.00 76 1018.3
20260831091001 76 227 0.0 0.0 0.00 0.00 0.00 76 1018.3
20260831090901 76 227 0.0 0.0 0.00 0.00 0.00 76 1018.3
20260831090502 76 227 0.0 0.0 0.00 0.00 0.00 76 1018.3
20260831090402 76 227 0.0 0.0 0.00 0.00 0.00 76 1018.2
20260831090300 76 227 0.0 0.0 0.00 0.00 0.00 76 1018.3
20260831090200 76 227 0.0 0.0 0.00 0.00 0.00 76 1018.3
20260831085859 76 227 0.0 0.0 0.00 0.00 0.00 76 1018.3
20260831085800 76 227 0.0 0.0 0.00 0.00 0.00 76 1018.3
20260831085600 76 227 0.0 0.0 0.00 0.00 0.00 76 1018.2
20260831085502 76 227 0.0 0.0 0.00 0.00 0.00 76 1018.2
20260831085401 76 227 0.0 0.0 0.00 0.00 0.00 76 1018.2
20260831085300 76 227 0.0 0.0 0.00 0.00 0.00 76 1018.2
20260831085159 76 227 0.0 0.0 0.00 0.00 0.00 76 1018.2
20260831085100 76 227 0.0 0.0 0.00 0.00 0.00 76 1018.1
20260831085000 76 227 0.0 0.0 0.00 0.00 0.00 76 1018.1
20260831084901 76 227 0.0 0.0 0.00 0.00 0.00 76 1018.1
20260831084800 76 227 0.0 0.0 0.00 0.00 0.00 76 1018.1
20260831084600 76 296 0.0 0.0 0.00 0.00 0.00 76 1018.1
20260831084500 76 333 0.0 0.0 0.00 0.00 0.00 76 1018.1
20260831084401 76 333 0.0 0.0 0.00 0.00 0.00 76 1018.0
20260831084201 75 261 0.0 0.0 0.00 0.00 0.00 76 1017.9
20260831084000 75 233 0.0 0.0 0.00 0.00 0.00 76 1017.9
20260831083900 75 233 0.0 0.0 0.00 0.00 0.00 76 1017.9
20260831083800 75 233 0.0 0.0 0.00 0.00 0.00 76 1017.9
20260831083701 75 232 0.0 0.0 0.00 0.00 0.00 76 1017.9
20260831083600 75 217 0.0 0.0 0.00 0.00 0.00 76 1017.9
20260831083503 75 217 0.0 0.0 0.00 0.00 0.00 76 1017.8
20260831083400 75 217 0.0 0.0 0.00 0.00 0.00 76 1017.9
20260831083200 75 267 0.0 0.0 0.00 0.00 0.00 76 1017.8
20260831083102 75 80 0.0 0.0 0.00 0.00 0.00 76 1017.8
20260831083000 75 80 0.0 0.0 0.00 0.00 0.00 76 1017.7
20260831082859 75 80 0.0 0.0 0.00 0.00 0.00 76 1017.8
20260831082801 75 80 0.0 0.0 0.00 0.00 0.00 76 1017.7
20260831082659 75 80 0.0 0.0 0.00 0.00 0.00 76 1017.6
20260831082559 75 136 0.0 0.0 0.00 0.00 0.00 76 1017.6
20260831082459 75 136 0.0 0.0 0.00 0.00 0.00 76 1017.7
20260831082400 75 136 0.0 0.0 0.00 0.00 0.00 76 1017.6
20260831082259 75 136 0.0 0.0 0.00 0.00 0.00 76 1017.7
20260831082200 75 136 0.0 0.0 0.00 0.00 0.00 76 1017.7
20260831081959 75 136 0.0 0.0 0.00 0.00 0.00 76 1017.7
20260831081900 75 136 0.0 0.0 0.00 0.00 0.00 76 1017.7
20260831081800 75 136 0.0 0.0 0.00 0.00 0.00 76 1017.7
20260831081601 75 136 0.0 0.0 0.00 0.00 0.00 76 1017.6
20260831081500 75 136 0.0 0.0 0.00 0.00 0.00 76 1017.7
20260831081359 75 136 0.0 0.0 0.00 0.00 0.00 76 1017.7
20260831081300 75 136 0.0 0.0 0.00 0.00 0.00 76 1017.7
20260831081200 75 136 0.0 0.0 0.00 0.00 0.00 76 1017.6
20260831081059 75 136 0.0 0.0 0.00 0.00 0.00 76 1017.6
20260831080901 75 136 0.0 0.0 0.00 0.00 0.00 76 1017.6
20260831080759 75 136 0.0 0.0 0.00 0.00 0.00 76 1017.6
20260831080701 75 136 0.0 0.0 0.00 0.00 0.00 76 1017.5
20260831080559 75 136 0.0 0.0 0.00 0.00 0.00 76 1017.6
20260831080459 75 136 0.0 0.0 0.00 0.00 0.00 76 1017.5
20260831080359 75 136 0.0 0.0 0.00 0.00 0.00 76 1017.6
20260831080259 75 136 0.0 0.0 0.00 0.00 0.00 76 1017.6
20260831080201 74 136 0.0 0.0 0.00 0.00 0.00 76 1017.6
20260831080100 75 136 0.0 0.0 0.00 0.00 0.00 76 1017.5
20260831080004 74 136 0.0 0.0 0.00 0.00 0.00 76 1017.5
20260831075901 74 136 0.0 0.0 0.00 0.00 0.00 76 1017.6
20260831075800 74 136 0.0 0.0 0.00 0.00 0.00 76 1017.7
20260831075701 74 136 0.0 0.0 0.00 0.00 0.00 76 1017.6
20260831075500 74 136 0.0 0.0 0.00 0.00 0.00 76 1017.7
20260831075306 74 132 0.0 0.0 0.00 0.00 0.00 76 1017.7
20260831075200 74 132 0.0 0.0 0.00 0.00 0.00 76 1017.7
20260831075101 74 132 0.0 0.0 0.00 0.00 0.00 76 1017.7
20260831075002 74 132 0.0 0.0 0.00 0.00 0.00 76 1017.7
20260831074901 74 132 0.0 0.0 0.00 0.00 0.00 76 1017.7
20260831074801 74 132 0.0 0.0 0.00 0.00 0.00 77 1017.6
20260831074703 74 132 0.0 0.0 0.00 0.00 0.00 77 1017.7
20260831074500 74 132 0.0 0.0 0.00 0.00 0.00 76 1017.7
20260831074402 74 132 0.0 0.0 0.00 0.00 0.00 76 1017.7
20260831074201 74 132 0.0 0.0 0.00 0.00 0.00 77 1017.6
20260831074100 74 132 0.0 0.0 0.00 0.00 0.00 77 1017.6
20260831074001 74 132 0.0 0.0 0.00 0.00 0.00 77 1017.6
20260831073801 74 157 0.0 0.0 0.00 0.00 0.00 77 1017.6
20260831073702 74 157 0.0 0.0 0.00 0.00 0.00 77 1017.6
20260831073500 74 157 0.0 0.0 0.00 0.00 0.00 77 1017.6
20260831073400 74 157 0.0 0.0 0.00 0.00 0.00 77 1017.6
20260831073201 74 157 0.0 0.0 0.00 0.00 0.00 77 1017.8
20260831073102 74 157 0.0 0.0 0.00 0.00 0.00 77 1017.7
20260831073001 74 157 0.0 0.0 0.00 0.00 0.00 77 1017.7
20260831072902 74 157 0.0 0.0 0.00 0.00 0.00 77 1017.7
20260831072702 74 157 0.0 0.0 0.00 0.00 0.00 77 1017.8
20260831072500 74 157 0.0 0.0 0.00 0.00 0.00 77 1017.8
20260831072300 74 157 0.0 0.0 0.00 0.00 0.00 77 1017.8
20260831072201 74 157 0.0 0.0 0.00 0.00 0.00 77 1017.8
20260831072100 74 157 0.0 0.0 0.00 0.00 0.00 77 1017.8
20260831072001 74 157 0.0 0.0 0.00 0.00 0.00 77 1017.8
20260831071800 74 157 0.0 0.0 0.00 0.00 0.00 77 1017.8
20260831071602 74 157 0.0 0.0 0.00 0.00 0.00 77 1017.8
20260831071502 74 157 0.0 0.0 0.00 0.00 0.00 77 1017.8
20260831071301 74 157 0.0 0.0 0.00 0.00 0.00 77 1017.9
20260831071202 74 157 0.0 0.0 0.00 0.00 0.00 77 1017.9
20260831071101 74 157 0.0 0.0 0.00 0.00 0.00 77 1017.9
20260831071001 74 157 0.0 0.0 0.00 0.00 0.00 77 1017.9
20260831070900 74 157 0.0 0.0 0.00 0.00 0.00 77 1017.9
20260831070801 74 157 0.0 0.0 0.00 0.00 0.00 77 1018.0
20260831070702 74 157 0.0 0.0 0.00 0.00 0.00 77 1018.0
20260831070601 74 157 0.0 0.0 0.00 0.00 0.00 78 1018.0
20260831070501 74 157 0.0 0.0 0.00 0.00 0.00 78 1017.9
20260831070402 74 157 0.0 0.0 0.00 0.00 0.00 78 1017.9
20260831070301 74 157 0.0 0.0 0.00 0.00 0.00 78 1018.0
20260831070200 74 157 0.0 0.0 0.00 0.00 0.00 78 1018.1
20260831065902 74 157 0.0 0.0 0.00 0.00 0.00 78 1018.1
20260831065702 74 157 0.0 0.0 0.00 0.00 0.00 78 1018.2
20260831065600 74 157 0.0 0.0 0.00 0.00 0.00 78 1018.2
20260831065500 74 157 0.0 0.0 0.00 0.00 0.00 78 1018.2
20260831065402 74 157 0.0 0.0 0.00 0.00 0.00 78 1018.2
20260831065201 74 157 0.0 0.0 0.00 0.00 0.00 78 1018.2
20260831065101 74 157 0.0 0.0 0.00 0.00 0.00 78 1018.3
20260831065001 74 157 0.0 0.0 0.00 0.00 0.00 78 1018.3
20260831064902 74 157 0.0 0.0 0.00 0.00 0.00 78 1018.3
20260831064801 74 157 0.0 0.0 0.00 0.00 0.00 78 1018.3
20260831064700 74 157 0.0 0.0 0.00 0.00 0.00 78 1018.3
20260831064600 74 157 0.0 0.0 0.00 0.00 0.00 78 1018.4
20260831064501 74 157 0.0 0.0 0.00 0.00 0.00 78 1018.4
20260831064400 74 157 0.0 0.0 0.00 0.00 0.00 78 1018.4
20260831064302 74 157 0.0 0.0 0.00 0.00 0.00 78 1018.3
20260831064200 74 157 0.0 0.0 0.00 0.00 0.00 78 1018.4
20260831064101 74 157 0.0 0.0 0.00 0.00 0.00 78 1018.3
20260831064000 74 157 0.0 0.0 0.00 0.00 0.00 78 1018.4
20260831063901 74 157 0.0 0.0 0.00 0.00 0.00 78 1018.4
20260831063800 74 157 0.0 0.0 0.00 0.00 0.00 77 1018.5
20260831063701 74 157 0.0 0.0 0.00 0.00 0.00 78 1018.5
20260831063500 74 157 0.0 0.0 0.00 0.00 0.00 78 1018.4
20260831063400 74 157 0.0 0.0 0.00 0.00 0.00 78 1018.5
20260831063301 74 157 0.0 0.0 0.00 0.00 0.00 78 1018.5
20260831063201 74 157 0.0 0.0 0.00 0.00 0.00 77 1018.5
20260831063102 74 157 0.0 0.0 0.00 0.00 0.00 78 1018.5
20260831063001 74 157 0.0 0.0 0.00 0.00 0.00 78 1018.5
20260831062900 74 157 0.0 0.0 0.00 0.00 0.00 78 1018.5
20260831062801 74 157 0.0 0.0 0.00 0.00 0.00 78 1018.6
20260831062700 74 157 0.0 0.0 0.00 0.00 0.00 78 1018.6
20260831062602 74 157 0.0 0.0 0.00 0.00 0.00 78 1018.6
20260831062500 74 157 0.0 0.0 0.00 0.00 0.00 78 1018.6
20260831062401 74 157 0.0 0.0 0.00 0.00 0.00 77 1018.6
20260831062300 74 157 0.0 0.0 0.00 0.00 0.00 77 1018.6
20260831062200 74 157 0.0 0.0 0.00 0.00 0.00 77 1018.6
20260831062102 74 157 0.0 0.0 0.00 0.00 0.00 78 1018.6
20260831062001 74 157 0.0 0.0 0.00 0.00 0.00 78 1018.6
20260831061900 74 157 0.0 0.0 0.00 0.00 0.00 78 1018.7
20260831061801 74 157 0.0 0.0 0.00 0.00 0.00 78 1018.6
20260831061700 74 157 0.0 0.0 0.00 0.00 0.00 78 1018.6
20260831061601 74 157 0.0 0.0 0.00 0.00 0.00 78 1018.6
20260831061401 74 157 0.0 0.0 0.00 0.00 0.00 78 1018.6
20260831061300 74 157 0.0 0.0 0.00 0.00 0.00 78 1018.6
20260831061203 74 157 0.0 0.0 0.00 0.00 0.00 78 1018.6
20260831061102 74 157 0.0 0.0 0.00 0.00 0.00 78 1018.6
20260831061002 74 157 0.0 0.0 0.00 0.00 0.00 78 1018.6
20260831060903 74 157 0.0 0.0 0.00 0.00 0.00 78 1018.6
20260831060800 74 157 0.0 0.0 0.00 0.00 0.00 78 1018.6
20260831060700 74 157 0.0 0.0 0.00 0.00 0.00 77 1018.6
20260831060600 74 157 0.0 0.0 0.00 0.00 0.00 77 1018.6
20260831060502 74 157 0.0 0.0 0.00 0.00 0.00 78 1018.6
20260831060402 74 157 0.0 0.0 0.00 0.00 0.00 77 1018.6
20260831060300 74 157 0.0 0.0 0.00 0.00 0.00 77 1018.6
20260831060058 74 157 0.0 0.0 0.00 0.00 0.00 77 1018.6
20260831055958 74 157 0.0 0.0 0.00 0.00 0.00 77 1018.6
20260831055858 74 157 0.0 0.0 0.00 0.00 0.00 77 1018.7
20260831055759 74 157 0.0 0.0 0.00 0.00 0.00 77 1018.7
20260831055357 74 157 0.0 0.0 0.00 0.00 0.00 77 1018.7
20260831055257 74 157 0.0 0.0 0.00 0.00 0.00 77 1018.7
20260831055158 74 157 0.0 0.0 0.00 0.00 0.00 77 1018.7
20260831054959 74 157 0.0 0.0 0.00 0.00 0.00 77 1018.7
20260831054757 74 157 0.0 0.0 0.00 0.00 0.00 77 1018.7
20260831054657 74 157 0.0 0.0 0.00 0.00 0.00 77 1018.7
20260831054558 74 157 0.0 0.0 0.00 0.00 0.00 77 1018.7
20260831054458 74 157 0.0 0.0 0.00 0.00 0.00 77 1018.7
20260831054358 74 157 0.0 0.0 0.00 0.00 0.00 77 1018.8
20260831054257 74 157 0.0 0.0 0.00 0.00 0.00 77 1018.7
20260831054159 74 157 0.0 0.0 0.00 0.00 0.00 77 1018.7
20260831054057 74 157 0.0 0.0 0.00 0.00 0.00 77 1018.7
20260831053958 74 157 0.0 0.0 0.00 0.00 0.00 77 1018.7
20260831053858 74 157 0.0 0.0 0.00 0.00 0.00 77 1018.7
20260831053758 74 157 0.0 0.0 0.00 0.00 0.00 77 1018.6
20260831053657 74 157 0.0 0.0 0.00 0.00 0.00 77 1018.7
20260831053601 74 157 0.0 0.0 0.00 0.00 0.00 77 1018.7
20260831053257 74 157 0.0 0.0 0.00 0.00 0.00 77 1018.6
20260831053157 74 157 0.0 0.0 0.00 0.00 0.00 77 1018.7
20260831053057 74 157 0.0 0.0 0.00 0.00 0.00 77 1018.7
20260831052958 74 157 0.0 0.0 0.00 0.00 0.00 77 1018.7
20260831052857 74 157 0.0 0.0 0.00 0.00 0.00 77 1018.6
20260831052757 74 157 0.0 0.0 0.00 0.00 0.00 77 1018.6
20260831052658 74 157 0.0 0.0 0.00 0.00 0.00 77 1018.7
20260831052558 74 157 0.0 0.0 0.00 0.00 0.00 77 1018.7
20260831052057 74 157 0.0 0.0 0.00 0.00 0.00 77 1018.6
20260831051958 74 157 0.0 0.0 0.00 0.00 0.00 77 1018.6
20260831051758 74 157 0.0 0.0 0.00 0.00 0.00 77 1018.6
20260831051658 74 157 0.0 0.0 0.00 0.00 0.00 77 1018.5
20260831051557 74 157 0.0 0.0 0.00 0.00 0.00 77 1018.5
20260831051457 74 157 0.0 0.0 0.00 0.00 0.00 77 1018.5
20260831051358 74 157 0.0 0.0 0.00 0.00 0.00 77 1018.5
20260831051258 74 157 0.0 0.0 0.00 0.00 0.00 77 1018.4
20260831051159 74 157 0.0 0.0 0.00 0.00 0.00 77 1018.4
20260831051100 74 229 0.0 0.0 0.00 0.00 0.00 77 1018.5
20260831050958 74 230 0.0 0.0 0.00 0.00 0.00 77 1018.6
20260831050858 74 230 0.0 0.0 0.00 0.00 0.00 77 1018.6
20260831050659 74 230 0.0 0.0 0.00 0.00 0.00 77 1018.6
20260831050557 74 230 0.0 0.0 0.00 0.00 0.00 77 1018.6
20260831050457 74 229 0.0 0.0 0.00 0.00 0.00 77 1018.6
20260831050359 74 230 0.0 0.0 0.00 0.00 0.00 77 1018.6
20260831050259 74 229 0.0 0.0 0.00 0.00 0.00 77 1018.6
20260831050200 74 229 0.0 0.0 0.00 0.00 0.00 77 1018.6
20260831045959 74 230 0.0 0.0 0.00 0.00 0.00 77 1018.6
20260831045858 74 230 0.0 0.0 0.00 0.00 0.00 77 1018.6
20260831045757 74 229 0.0 0.0 0.00 0.00 0.00 77 1018.7
20260831045659 74 230 0.0 0.0 0.00 0.00 0.00 77 1018.6
20260831045558 74 230 0.0 0.0 0.00 0.00 0.00 76 1018.6
20260831045457 74 230 0.0 0.0 0.00 0.00 0.00 76 1018.6
20260831045357 74 230 0.0 0.0 0.00 0.00 0.00 77 1018.6
20260831045158 74 230 0.0 0.0 0.00 0.00 0.00 77 1018.6
20260831045056 74 230 0.0 0.0 0.00 0.00 0.00 77 1018.6
20260831044958 74 230 0.0 0.0 0.00 0.00 0.00 77 1018.6
20260831044858 74 230 0.0 0.0 0.00 0.00 0.00 77 1018.6
20260831044657 75 230 0.0 0.0 0.00 0.00 0.00 77 1018.6
20260831044557 75 230 0.0 0.0 0.00 0.00 0.00 77 1018.6
20260831044458 75 230 0.0 0.0 0.00 0.00 0.00 77 1018.6
20260831044358 75 230 0.0 0.0 0.00 0.00 0.00 77 1018.6
20260831044257 75 230 0.0 0.0 0.00 0.00 0.00 77 1018.7
20260831044057 75 230 0.0 0.0 0.00 0.00 0.00 77 1018.7
20260831043857 75 230 0.0 0.0 0.00 0.00 0.00 76 1018.7
20260831043759 75 230 0.0 0.0 0.00 0.00 0.00 76 1018.6
20260831043658 75 230 0.0 0.0 0.00 0.00 0.00 76 1018.7
20260831043559 75 229 0.0 0.0 0.00 0.00 0.00 76 1018.7
20260831043500 75 229 0.0 0.0 0.00 0.00 0.00 76 1018.7
20260831043358 75 229 0.0 0.0 0.00 0.00 0.00 77 1018.7
20260831043158 75 229 0.0 0.0 0.00 0.00 0.00 76 1018.7
20260831043058 75 230 0.0 0.0 0.00 0.00 0.00 76 1018.7
20260831042959 75 230 0.0 0.0 0.00 0.00 0.00 76 1018.7
20260831042759 75 229 0.0 0.0 0.00 0.00 0.00 76 1018.7
20260831042700 75 230 0.0 0.0 0.00 0.00 0.00 76 1018.7
20260831042601 75 230 0.0 0.0 0.00 0.00 0.00 76 1018.7
20260831042500 75 230 0.0 0.0 0.00 0.00 0.00 76 1018.7
20260831042359 75 230 0.0 0.0 0.00 0.00 0.00 76 1018.7
20260831042258 75 230 0.0 0.0 0.00 0.00 0.00 76 1018.7
20260831042200 75 229 0.0 0.0 0.00 0.00 0.00 76 1018.6
20260831042059 75 230 0.0 0.0 0.00 0.00 0.00 76 1018.6
20260831041958 75 229 0.0 0.0 0.00 0.00 0.00 76 1018.7
20260831041859 75 230 0.0 0.0 0.00 0.00 0.00 76 1018.7
20260831041800 75 229 0.0 0.0 0.00 0.00 0.00 76 1018.7
20260831041659 75 229 0.0 0.0 0.00 0.00 0.00 76 1018.7
20260831041559 75 230 0.0 0.0 0.00 0.00 0.00 76 1018.7
20260831041458 75 230 0.0 0.0 0.00 0.00 0.00 76 1018.7
20260831041358 75 230 0.0 0.0 0.00 0.00 0.00 76 1018.7
20260831041258 75 230 0.0 0.0 0.00 0.00 0.00 76 1018.8
20260831041201 75 230 0.0 0.0 0.00 0.00 0.00 76 1018.7
20260831040958 75 230 0.0 0.0 0.00 0.00 0.00 76 1018.8
20260831040859 75 230 0.0 0.0 0.00 0.00 0.00 76 1018.7
20260831040759 75 229 0.0 0.0 0.00 0.00 0.00 76 1018.7
20260831040659 75 230 0.0 0.0 0.00 0.00 0.00 76 1018.8
20260831040558 75 230 0.0 0.0 0.00 0.00 0.00 76 1018.7
20260831040459 75 229 0.0 0.0 0.00 0.00 0.00 76 1018.7
20260831040258 75 230 0.0 0.0 0.00 0.00 0.00 75 1018.7
20260831040159 75 229 0.0 0.0 0.00 0.00 0.00 75 1018.7
20260831040059 75 230 0.0 0.0 0.00 0.00 0.00 75 1018.7
20260831035957 75 229 0.0 0.0 0.00 0.00 0.00 75 1018.7
20260831035900 75 229 0.0 0.0 0.00 0.00 0.00 75 1018.6
20260831035758 75 230 0.0 0.0 0.00 0.00 0.00 75 1018.7
20260831035559 75 229 0.0 0.0 0.00 0.00 0.00 75 1018.7
20260831035459 76 229 0.0 0.0 0.00 0.00 0.00 75 1018.7
20260831035358 76 229 0.0 0.0 0.00 0.00 0.00 75 1018.7
20260831035258 75 230 0.0 0.0 0.00 0.00 0.00 75 1018.7
20260831035159 76 230 0.0 0.0 0.00 0.00 0.00 75 1018.7
20260831034959 76 230 0.0 0.0 0.00 0.00 0.00 75 1018.7
20260831034900 76 230 0.0 0.0 0.00 0.00 0.00 75 1018.6
20260831034759 76 230 0.0 0.0 0.00 0.00 0.00 75 1018.6
20260831034559 76 230 0.0 0.0 0.00 0.00 0.00 75 1018.6
20260831034458 76 229 0.0 0.0 0.00 0.00 0.00 75 1018.7
20260831034358 76 229 0.0 0.0 0.00 0.00 0.00 75 1018.6
20260831034259 76 230 0.0 0.0 0.00 0.00 0.00 75 1018.7
20260831034158 76 230 0.0 0.0 0.00 0.00 0.00 75 1018.6
20260831034058 76 229 0.0 0.0 0.00 0.00 0.00 75 1018.7
20260831033958 76 230 0.0 0.0 0.00 0.00 0.00 75 1018.6
20260831033859 76 229 0.0 0.0 0.00 0.00 0.00 75 1018.6
20260831033659 76 230 0.0 0.0 0.00 0.00 0.00 75 1018.6
20260831033600 76 230 0.0 0.0 0.00 0.00 0.00 75 1018.7
20260831033458 76 230 0.0 0.0 0.00 0.00 0.00 75 1018.7
20260831033359 76 230 0.0 0.0 0.00 0.00 0.00 75 1018.7
20260831033259 76 230 0.0 0.0 0.00 0.00 0.00 75 1018.7
20260831033157 76 230 0.0 0.0 0.00 0.00 0.00 74 1018.7
20260831033058 76 230 0.0 0.0 0.00 0.00 0.00 75 1018.7
20260831032959 76 229 0.0 0.0 0.00 0.00 0.00 74 1018.7
20260831032858 76 230 0.0 0.0 0.00 0.00 0.00 74 1018.7
20260831032758 76 229 0.0 0.0 0.00 0.00 0.00 74 1018.7
20260831032558 76 230 0.0 0.0 0.00 0.00 0.00 75 1018.9
20260831032459 76 229 0.0 0.0 0.00 0.00 0.00 75 1018.9
20260831032400 76 230 0.0 0.0 0.00 0.00 0.00 75 1018.9
20260831032301 76 229 0.0 0.0 0.00 0.00 0.00 75 1018.8
20260831032158 76 230 0.0 0.0 0.00 0.00 0.00 75 1018.9
20260831032058 76 230 0.0 0.0 0.00 0.00 0.00 75 1018.9
20260831031959 76 230 0.0 0.0 0.00 0.00 0.00 74 1018.8
20260831031659 76 230 0.0 0.0 0.00 0.00 0.00 74 1018.8
20260831031600 76 230 0.0 0.0 0.00 0.00 0.00 74 1018.8
20260831031358 76 230 0.0 0.0 0.00 0.00 0.00 74 1018.7
20260831031258 76 230 0.0 0.0 0.00 0.00 0.00 74 1018.7
20260831031100 76 230 0.0 0.0 0.00 0.00 0.00 75 1018.7
20260831030958 76 229 0.0 0.0 0.00 0.00 0.00 75 1018.7
20260831030859 76 229 0.0 0.0 0.00 0.00 0.00 75 1018.6
20260831030800 76 230 0.0 0.0 0.00 0.00 0.00 75 1018.6
20260831030658 76 229 0.0 0.0 0.00 0.00 0.00 75 1018.6
20260831030559 76 230 0.0 0.0 0.00 0.00 0.00 74 1018.7
20260831030457 76 235 0.0 0.0 0.00 0.00 0.00 75 1018.6
20260831030359 76 250 0.0 0.0 0.00 0.00 0.00 75 1018.6
20260831030301 76 250 0.0 0.0 0.00 0.00 0.00 75 1018.6
20260831030158 76 250 0.0 0.0 0.00 0.00 0.00 75 1018.6
20260831030058 76 250 0.0 0.0 0.00 0.00 0.00 75 1018.6
20260831030002 76 250 0.0 0.0 0.00 0.00 0.00 75 1018.6
20260831025800 76 250 0.0 0.0 0.00 0.00 0.00 75 1018.7
20260831025702 76 250 0.0 0.0 0.00 0.00 0.00 75 1018.7
20260831025600 76 250 0.0 0.0 0.00 0.00 0.00 75 1018.7
20260831025400 76 248 0.0 0.0 0.00 0.00 0.00 75 1018.7
20260831025300 76 248 0.0 0.0 0.00 0.00 0.00 75 1018.7
20260831025100 76 248 0.0 0.0 0.00 0.00 0.00 75 1018.8
20260831024802 76 248 0.0 0.0 0.00 0.00 0.00 75 1018.7
20260831024601 76 248 0.0 0.0 0.00 0.00 0.00 75 1018.7
20260831024459 76 248 0.0 0.0 0.00 0.00 0.00 75 1018.7
20260831024359 76 248 0.0 0.0 0.00 0.00 0.00 75 1018.8
20260831024300 76 248 0.0 0.0 0.00 0.00 0.00 75 1018.7
20260831024159 76 248 0.0 0.0 0.00 0.00 0.00 75 1018.7
20260831024101 76 248 0.0 0.0 0.00 0.00 0.00 75 1018.7
20260831023959 76 248 0.0 0.0 0.00 0.00 0.00 75 1018.8
20260831023900 77 248 0.0 0.0 0.00 0.00 0.00 74 1018.7
20260831023801 77 248 0.0 0.0 0.00 0.00 0.00 75 1018.7
20260831023700 77 248 0.0 0.0 0.00 0.00 0.00 74 1018.7
20260831023558 77 248 0.0 0.0 0.00 0.00 0.00 74 1018.7
20260831023500 77 248 0.0 0.0 0.00 0.00 0.00 74 1018.7
20260831023400 77 248 0.0 0.0 0.00 0.00 0.00 74 1018.8
20260831023259 77 248 0.0 0.0 0.00 0.00 0.00 74 1018.8
20260831023059 77 248 0.0 0.0 0.00 0.00 0.00 74 1018.7
20260831022959 77 248 0.0 0.0 0.00 0.00 0.00 74 1018.7
20260831022902 77 248 0.0 0.0 0.00 0.00 0.00 74 1018.7
20260831022759 77 248 0.0 0.0 0.00 0.00 0.00 74 1018.7
20260831022700 77 248 0.0 0.0 0.00 0.00 0.00 74 1018.6
20260831022559 77 248 0.0 0.0 0.00 0.00 0.00 74 1018.6
20260831022459 77 248 0.0 0.0 0.00 0.00 0.00 74 1018.6
20260831022359 77 248 0.0 0.0 0.00 0.00 0.00 74 1018.7
20260831022300 77 248 0.0 0.0 0.00 0.00 0.00 74 1018.6
20260831022059 77 248 0.0 0.0 0.00 0.00 0.00 73 1018.7
20260831021959 77 248 0.0 0.0 0.00 0.00 0.00 73 1018.6
20260831021800 77 248 0.0 0.0 0.00 0.00 0.00 73 1018.7
20260831021700 77 248 0.0 0.0 0.00 0.00 0.00 73 1018.7
20260831021559 77 248 0.0 0.0 0.00 0.00 0.00 73 1018.7
20260831021501 77 248 0.0 0.0 0.00 0.00 0.00 72 1018.6
20260831021259 78 248 0.0 0.0 0.00 0.00 0.00 72 1018.7
20260831021159 78 248 0.0 0.0 0.00 0.00 0.00 72 1018.6
20260831021101 78 248 0.0 0.0 0.00 0.00 0.00 72 1018.6
20260831020759 78 248 0.0 0.0 0.00 0.00 0.00 73 1018.6
20260831020659 78 248 0.0 0.0 0.00 0.00 0.00 72 1018.5
20260831020559 78 248 0.0 0.0 0.00 0.00 0.00 73 1018.6
20260831020400 78 248 0.0 0.0 0.00 0.00 0.00 73 1018.6
20260831020259 78 248 0.0 0.0 0.00 0.00 0.00 72 1018.6
20260831020200 78 248 0.0 0.0 0.00 0.00 0.00 72 1018.6
20260831020059 78 248 0.0 0.0 0.00 0.00 0.00 71 1018.5
20260831015859 78 248 0.0 0.0 0.00 0.00 0.00 71 1018.6
20260831015758 78 248 0.0 0.0 0.00 0.00 0.00 71 1018.6
20260831015658 78 248 0.0 0.0 0.00 0.00 0.00 71 1018.6
20260831015358 78 248 0.0 0.0 0.00 0.00 0.00 71 1018.6
20260831015259 78 248 0.0 0.0 0.00 0.00 0.00 71 1018.6
20260831015159 78 248 0.0 0.0 0.00 0.00 0.00 71 1018.6
20260831015059 78 248 0.0 0.0 0.00 0.00 0.00 71 1018.5
20260831014958 78 248 0.0 0.0 0.00 0.00 0.00 71 1018.6
20260831014900 78 248 0.0 0.0 0.00 0.00 0.00 70 1018.7
20260831014658 78 248 0.0 0.0 0.00 0.00 0.00 70 1018.6
20260831014459 78 248 0.0 0.0 0.00 0.00 0.00 70 1018.6
20260831014358 78 248 0.0 0.0 0.00 0.00 0.00 70 1018.6
20260831014300 78 248 0.0 0.0 0.00 0.00 0.00 70 1018.5
20260831014159 78 248 0.0 0.0 0.00 0.00 0.00 70 1018.6
20260831014058 78 248 0.0 0.0 0.00 0.00 0.00 71 1018.5
20260831013958 78 248 0.0 0.0 0.00 0.00 0.00 70 1018.6
20260831013859 78 248 0.0 0.0 0.00 0.00 0.00 71 1018.6
20260831013758 78 248 0.0 0.0 0.00 0.00 0.00 71 1018.5
20260831013658 78 248 0.0 0.0 0.00 0.00 0.00 71 1018.5
20260831013558 79 248 0.0 0.0 0.00 0.00 0.00 71 1018.5
20260831013457 79 248 0.0 0.0 0.00 0.00 0.00 71 1018.5
20260831013259 79 248 0.0 0.0 0.00 0.00 0.00 71 1018.6
20260831013058 79 248 0.0 0.0 0.00 0.00 0.00 71 1018.6
20260831013000 79 248 0.0 0.0 0.00 0.00 0.00 70 1018.6
20260831012858 79 248 0.0 0.0 0.00 0.00 0.00 71 1018.5
20260831012759 79 248 0.0 0.0 0.00 0.00 0.00 70 1018.5
20260831012659 79 248 0.0 0.0 0.00 0.00 0.00 70 1018.4
20260831012558 79 248 0.0 0.0 0.00 0.00 0.00 70 1018.5
20260831012458 79 248 0.0 0.0 0.00 0.00 0.00 70 1018.5
20260831012359 79 248 0.0 0.0 0.00 0.00 0.00 69 1018.5
20260831012158 79 248 0.0 0.0 0.00 0.00 0.00 69 1018.5
20260831011959 79 248 0.0 0.0 0.00 0.00 0.00 69 1018.4
20260831011858 79 248 0.0 0.0 0.00 0.00 0.00 69 1018.4
20260831011659 79 248 0.0 0.0 0.00 0.00 0.00 69 1018.4
20260831011558 79 248 0.0 0.0 0.00 0.00 0.00 69 1018.4
20260831011459 79 248 0.0 0.0 0.00 0.00 0.00 69 1018.4
20260831011358 79 248 0.0 0.0 0.00 0.00 0.00 70 1018.3
20260831011258 79 248 0.0 0.0 0.00 0.00 0.00 70 1018.3
20260831011159 79 248 0.0 0.0 0.00 0.00 0.00 70 1018.3
20260831011100 79 248 0.0 0.0 0.00 0.00 0.00 70 1018.3
20260831010959 79 248 0.0 0.0 0.00 0.00 0.00 69 1018.3
20260831010858 80 248 0.0 0.0 0.00 0.00 0.00 69 1018.3
20260831010658 80 248 0.0 0.0 0.00 0.00 0.00 68 1018.3
20260831010600 80 248 0.0 0.0 0.00 0.00 0.00 68 1018.4
20260831010458 80 248 0.0 0.0 0.00 0.00 0.00 68 1018.3
20260831010358 80 248 0.0 0.0 0.00 0.00 0.00 68 1018.3
20260831010259 80 248 0.0 0.0 0.00 0.00 0.00 68 1018.3
20260831010158 80 248 0.0 0.0 0.00 0.00 0.00 68 1018.3
20260831010000 80 248 0.0 0.0 0.00 0.00 0.00 68 1018.2
20260831005858 80 248 0.0 0.0 0.00 0.00 0.00 68 1018.2
20260831005759 80 248 0.0 0.0 0.00 0.00 0.00 68 1018.2
20260831005658 80 248 0.0 0.0 0.00 0.00 0.00 67 1018.1
20260831005600 80 248 0.0 0.0 0.00 0.00 0.00 67 1018.1
20260831005359 80 248 0.0 0.0 0.00 0.00 0.00 68 1018.1
20260831005259 80 248 0.0 0.0 0.00 0.00 0.00 68 1018.1
20260831005200 80 248 0.0 0.0 0.00 0.00 0.00 68 1018.1
20260831005058 80 248 0.0 0.0 0.00 0.00 0.00 68 1018.0
20260831004859 80 248 0.0 0.0 0.00 0.00 0.00 68 1018.0
20260831004759 80 248 0.0 0.0 0.00 0.00 0.00 68 1018.0
20260831004700 80 248 0.0 0.0 0.00 0.00 0.00 68 1018.0
20260831004559 80 248 0.0 0.0 0.00 0.00 0.00 67 1018.1
20260831004358 81 248 0.0 0.0 0.00 0.00 0.00 67 1018.1
20260831004300 81 248 0.0 0.0 0.00 0.00 0.00 67 1018.1
20260831004158 81 248 0.0 0.0 0.00 0.00 0.00 67 1018.1
20260831004058 81 248 0.0 0.0 0.00 0.00 0.00 66 1018.2
20260831004000 81 248 0.0 0.0 0.00 0.00 0.00 65 1018.1
20260831003900 81 248 0.0 0.0 0.00 0.00 0.00 65 1018.1
20260831003658 81 248 0.0 0.0 0.00 0.00 0.00 64 1018.1
20260831003559 81 248 0.0 0.0 0.00 0.00 0.00 64 1018.1
20260831003458 81 248 0.0 0.0 0.00 0.00 0.00 64 1018.2
20260831003259 81 248 0.0 0.0 0.00 0.00 0.00 65 1018.2
20260831003159 81 248 0.0 0.0 0.00 0.00 0.00 65 1018.2
20260831003000 81 248 0.0 0.0 0.00 0.00 0.00 63 1018.1
20260831002859 81 248 0.0 0.0 0.00 0.00 0.00 64 1018.0
20260831002659 82 248 0.0 0.0 0.00 0.00 0.00 63 1018.0
20260831002602 82 248 0.0 0.0 0.00 0.00 0.00 63 1018.0
20260831002458 82 248 0.0 0.0 0.00 0.00 0.00 63 1018.1
20260831002401 82 248 0.0 0.0 0.00 0.00 0.00 63 1018.1
20260831002259 82 248 0.0 0.0 0.00 0.00 0.00 63 1018.0
20260831002159 82 248 0.0 0.0 0.00 0.00 0.00 63 1018.0
20260831002058 82 248 0.0 0.0 0.00 0.00 0.00 63 1018.0
20260831001959 82 248 0.0 0.0 0.00 0.00 0.00 63 1018.0
20260831001858 82 248 0.0 0.0 0.00 0.00 0.00 63 1018.0
20260831001758 82 248 0.0 0.0 0.00 0.00 0.00 63 1018.1
20260831001659 82 248 0.0 0.0 0.00 0.00 0.00 62 1018.0
20260831001558 82 248 0.0 0.0 0.00 0.00 0.00 62 1018.0
20260831001458 82 248 0.0 0.0 0.00 0.00 0.00 61 1017.9
20260831001358 82 248 0.0 0.0 0.00 0.00 0.00 61 1018.0
20260831001259 83 248 0.0 0.0 0.00 0.00 0.00 61 1018.0
20260831000958 83 248 0.0 0.0 0.00 0.00 0.00 61 1017.9
20260831000858 83 248 0.0 0.0 0.00 0.00 0.00 61 1017.9
20260831000759 83 248 0.0 0.0 0.00 0.00 0.00 60 1017.9
20260831000658 83 248 0.0 0.0 0.00 0.00 0.00 60 1018.0
20260831000559 83 248 0.0 0.0 0.00 0.00 0.00 60 1017.9
20260831000501 83 248 0.0 0.0 0.00 0.00 0.00 60 1018.0
20260831000258 83 248 0.0 0.0 0.00 0.00 0.00 60 1018.0
20260831000159 83 248 0.0 0.0 0.00 0.00 0.00 59 1018.0
20260831000059 83 248 0.0 0.0 0.00 0.00 0.00 59 1018.0
20260831000003 83 241 0.0 0.0 0.00 0.00 0.00 60 1018.0
20260830235859 83 241 0.0 0.0 0.00 0.00 0.00 60 1018.0
20260830235800 83 241 0.0 0.0 0.00 0.00 0.00 60 1018.1
20260830235700 83 241 0.0 0.0 0.00 0.00 0.00 59 1018.1
20260830235601 83 241 0.0 0.0 0.00 0.00 0.00 58 1018.1
20260830235459 84 241 0.0 0.0 0.00 0.00 0.00 58 1018.1
20260830235401 84 241 0.0 1.0 0.00 0.00 0.00 58 1018.0
20260830235301 84 241 0.0 1.0 0.00 0.00 0.00 59 1018.1
20260830235159 84 241 0.0 2.0 0.00 0.00 0.00 59 1018.1
20260830235102 84 241 0.0 2.0 0.00 0.00 0.00 58 1018.0
20260830234859 84 223 0.0 2.0 0.00 0.00 0.00 58 1018.0
20260830234803 84 223 0.0 2.0 0.00 0.00 0.00 58 1018.1
20260830234701 84 223 0.0 2.0 0.00 0.00 0.00 57 1018.1
20260830234559 84 217 0.0 2.0 0.00 0.00 0.00 57 1017.9
20260830234500 84 217 0.0 2.0 0.00 0.00 0.00 57 1017.9
20260830234400 84 202 0.0 2.0 0.00 0.00 0.00 57 1017.9
20260830234259 84 198 2.0 2.0 0.00 0.00 0.00 57 1017.9
20260830234159 84 261 0.0 2.0 0.00 0.00 0.00 57 1017.8
20260830234101 84 261 0.0 2.0 0.00 0.00 0.00 57 1017.9
20260830233959 84 261 0.0 2.0 0.00 0.00 0.00 57 1017.9
20260830233800 84 261 0.0 2.0 0.00 0.00 0.00 56 1017.9
20260830233608 84 258 0.0 2.0 0.00 0.00 0.00 56 1017.8
20260830233503 85 258 0.0 2.0 0.00 0.00 0.00 56 1017.8
20260830233300 85 258 0.0 2.0 0.00 0.00 0.00 56 1017.8
20260830233059 85 259 0.0 2.0 0.00 0.00 0.00 56 1017.8
20260830233001 85 259 0.0 2.0 0.00 0.00 0.00 56 1017.8
20260830232902 85 259 0.0 3.0 0.00 0.00 0.00 56 1017.8
20260830232759 85 259 0.0 3.0 0.00 0.00 0.00 56 1017.8
20260830232700 85 188 1.0 3.0 0.00 0.00 0.00 55 1017.8
20260830232600 85 168 0.0 3.0 0.00 0.00 0.00 55 1017.7
20260830232500 85 170 1.0 3.0 0.00 0.00 0.00 55 1017.8
20260830232359 85 227 0.0 3.0 0.00 0.00 0.00 55 1017.7
20260830232259 85 227 0.0 3.0 0.00 0.00 0.00 56 1017.7
20260830232159 85 228 0.0 3.0 0.00 0.00 0.00 55 1017.7
20260830232000 85 236 0.0 3.0 0.00 0.00 0.00 54 1017.6
20260830231859 85 233 0.0 3.0 0.00 0.00 0.00 55 1017.6
20260830231800 85 196 0.0 3.0 0.00 0.00 0.00 55 1017.7
20260830231700 86 199 0.0 3.0 0.00 0.00 0.00 54 1017.7
20260830231559 86 206 1.0 3.0 0.00 0.00 0.00 54 1017.6
20260830231259 86 209 1.0 4.0 0.00 0.00 0.00 54 1017.6